Wetterdaten: Mittwoch, 28.01.2026
Datum Zeit Temp. Aussen Temp. o. S. Temp +5cm Feuchte Auss Luftdruck Regen Sonnenschein Regendauer Solar Windböen Empfang
28.01.2026 00:00 4,0 °C 3,3 °C 0,0 °C 97 % 994,2 hPa 0,0 l/m² 0 min 0 min 0 W/m² 12,9 km/h (3 Bft) 97,67 %
28.01.2026 00:02 4,0 °C 3,3 °C 0,0 °C 97 % 994,2 hPa 0,0 l/m² 0 min 0 min 0 W/m² 3,2 km/h (1 Bft) 10,53 %
28.01.2026 00:04 4,0 °C 3,3 °C 0,0 °C 97 % 994,2 hPa 0,0 l/m² 0 min 0 min 0 W/m² 12,9 km/h (3 Bft) 90,70 %
28.01.2026 00:07 4,0 °C 3,3 °C 0,0 °C 97 % 994,3 hPa 0,0 l/m² 0 min 0 min 0 W/m² 12,9 km/h (3 Bft) 90,70 %
28.01.2026 00:08 4,0 °C 3,3 °C 0,0 °C 97 % 994,3 hPa 0,0 l/m² 0 min 0 min 0 W/m² 12,9 km/h (3 Bft) 98,90 %
28.01.2026 00:10 4,0 °C 3,3 °C 0,0 °C 97 % 994,3 hPa 0,0 l/m² 0 min 0 min 0 W/m² 12,9 km/h (3 Bft) 100,00 %
28.01.2026 00:15 4,0 °C 3,3 °C 0,0 °C 97 % 994,3 hPa 0,0 l/m² 0 min 0 min 0 W/m² 12,9 km/h (3 Bft) 100,00 %
28.01.2026 00:20 3,9 °C 3,3 °C 0,0 °C 98 % 994,3 hPa 0,0 l/m² 0 min 0 min 0 W/m² 16,1 km/h (3 Bft) 100,00 %
28.01.2026 00:25 3,9 °C 3,3 °C 0,0 °C 98 % 994,3 hPa 0,0 l/m² 0 min 0 min 0 W/m² 16,1 km/h (3 Bft) 100,00 %
28.01.2026 00:30 3,9 °C 3,3 °C 0,0 °C 98 % 994,3 hPa 0,0 l/m² 0 min 0 min 0 W/m² 12,9 km/h (3 Bft) 100,00 %
28.01.2026 00:35 3,9 °C 3,3 °C 0,0 °C 98 % 994,3 hPa 0,0 l/m² 0 min 0 min 0 W/m² 16,1 km/h (3 Bft) 77,19 %
28.01.2026 00:40 3,9 °C 3,3 °C 0,0 °C 98 % 994,3 hPa 0,0 l/m² 0 min 0 min 0 W/m² 16,1 km/h (3 Bft) 59,65 %
28.01.2026 00:45 4,0 °C 3,3 °C 0,0 °C 98 % 994,2 hPa 0,0 l/m² 0 min 0 min 0 W/m² 12,9 km/h (3 Bft) 100,00 %
28.01.2026 00:50 4,0 °C 3,3 °C 0,0 °C 98 % 994,1 hPa 0,0 l/m² 0 min 0 min 0 W/m² 16,1 km/h (3 Bft) 100,00 %
28.01.2026 00:55 3,9 °C 3,3 °C 0,0 °C 98 % 994,0 hPa 0,0 l/m² 0 min 0 min 0 W/m² 12,9 km/h (3 Bft) 100,00 %
28.01.2026 01:00 3,9 °C 3,3 °C 0,0 °C 98 % 994,0 hPa 0,0 l/m² 0 min 0 min 0 W/m² 12,9 km/h (3 Bft) 99,12 %
28.01.2026 01:05 3,9 °C 3,3 °C 0,0 °C 98 % 994,1 hPa 0,0 l/m² 0 min 0 min 0 W/m² 12,9 km/h (3 Bft) 99,12 %
28.01.2026 01:10 3,9 °C 3,3 °C 0,0 °C 98 % 994,0 hPa 0,0 l/m² 0 min 0 min 0 W/m² 9,7 km/h (2 Bft) 100,00 %
28.01.2026 01:15 3,9 °C 3,3 °C 0,0 °C 98 % 994,0 hPa 0,0 l/m² 0 min 0 min 0 W/m² 12,9 km/h (3 Bft) 99,12 %
28.01.2026 01:20 3,9 °C 3,3 °C 0,0 °C 98 % 994,0 hPa 0,0 l/m² 0 min 0 min 0 W/m² 12,9 km/h (3 Bft) 100,00 %
28.01.2026 01:25 3,9 °C 3,3 °C 0,0 °C 98 % 993,9 hPa 0,0 l/m² 0 min 0 min 0 W/m² 6,4 km/h (2 Bft) 100,00 %
28.01.2026 01:30 3,9 °C 3,3 °C 0,0 °C 98 % 993,9 hPa 0,0 l/m² 0 min 0 min 0 W/m² 6,4 km/h (2 Bft) 100,00 %
28.01.2026 01:35 3,9 °C 3,3 °C 0,0 °C 98 % 994,0 hPa 0,0 l/m² 0 min 0 min 0 W/m² 9,7 km/h (2 Bft) 100,00 %
28.01.2026 01:40 3,9 °C 3,3 °C 0,0 °C 98 % 994,0 hPa 0,0 l/m² 0 min 0 min 0 W/m² 6,4 km/h (2 Bft) 100,00 %
28.01.2026 01:45 4,0 °C 3,3 °C 0,0 °C 98 % 994,0 hPa 0,0 l/m² 0 min 0 min 0 W/m² 6,4 km/h (2 Bft) 100,00 %
28.01.2026 01:50 4,0 °C 3,3 °C 0,0 °C 98 % 994,0 hPa 0,0 l/m² 0 min 0 min 0 W/m² 3,2 km/h (1 Bft) 100,00 %
28.01.2026 01:55 4,0 °C 3,3 °C 0,0 °C 98 % 994,0 hPa 0,0 l/m² 0 min 0 min 0 W/m² 12,9 km/h (3 Bft) 98,25 %
28.01.2026 02:00 4,0 °C 3,3 °C 0,0 °C 98 % 994,0 hPa 0,0 l/m² 0 min 0 min 0 W/m² 6,4 km/h (2 Bft) 98,25 %
28.01.2026 02:05 4,0 °C 3,3 °C 0,0 °C 98 % 994,1 hPa 0,0 l/m² 0 min 0 min 0 W/m² 6,4 km/h (2 Bft) 98,25 %
28.01.2026 02:10 4,0 °C 3,3 °C 0,0 °C 98 % 994,1 hPa 0,0 l/m² 0 min 0 min 0 W/m² 12,9 km/h (3 Bft) 96,49 %
28.01.2026 02:15 4,1 °C 3,3 °C 0,0 °C 98 % 994,1 hPa 0,0 l/m² 0 min 0 min 0 W/m² 12,9 km/h (3 Bft) 94,74 %
28.01.2026 02:20 4,1 °C 3,3 °C 0,0 °C 98 % 994,2 hPa 0,0 l/m² 0 min 0 min 0 W/m² 12,9 km/h (3 Bft) 98,25 %
28.01.2026 02:25 4,1 °C 3,3 °C 0,0 °C 98 % 994,3 hPa 0,0 l/m² 0 min 0 min 0 W/m² 12,9 km/h (3 Bft) 98,25 %
28.01.2026 02:30 4,1 °C 3,3 °C 0,0 °C 98 % 994,3 hPa 0,0 l/m² 0 min 0 min 0 W/m² 12,9 km/h (3 Bft) 97,37 %
28.01.2026 02:35 4,1 °C 3,3 °C 0,0 °C 98 % 994,4 hPa 0,0 l/m² 0 min 0 min 0 W/m² 12,9 km/h (3 Bft) 99,12 %
28.01.2026 02:40 4,1 °C 3,3 °C 0,0 °C 98 % 994,4 hPa 0,0 l/m² 0 min 0 min 0 W/m² 6,4 km/h (2 Bft) 100,00 %
28.01.2026 02:45 4,1 °C 3,3 °C 0,0 °C 98 % 994,5 hPa 0,0 l/m² 0 min 0 min 0 W/m² 9,7 km/h (2 Bft) 100,00 %
28.01.2026 02:50 4,1 °C 3,3 °C 0,0 °C 98 % 994,6 hPa 0,0 l/m² 0 min 0 min 0 W/m² 12,9 km/h (3 Bft) 97,37 %
28.01.2026 02:55 4,1 °C 3,3 °C 0,0 °C 98 % 994,6 hPa 0,0 l/m² 0 min 0 min 0 W/m² 12,9 km/h (3 Bft) 100,00 %
28.01.2026 03:00 4,1 °C 3,3 °C 0,0 °C 98 % 994,6 hPa 0,0 l/m² 0 min 0 min 0 W/m² 12,9 km/h (3 Bft) 100,00 %
28.01.2026 03:05 4,1 °C 3,3 °C 0,0 °C 98 % 994,6 hPa 0,0 l/m² 0 min 0 min 0 W/m² 12,9 km/h (3 Bft) 100,00 %
28.01.2026 03:10 4,1 °C 3,3 °C 0,0 °C 98 % 994,6 hPa 0,0 l/m² 0 min 0 min 0 W/m² 16,1 km/h (3 Bft) 100,00 %
28.01.2026 03:15 4,1 °C 3,3 °C 0,0 °C 98 % 994,6 hPa 0,0 l/m² 0 min 0 min 0 W/m² 16,1 km/h (3 Bft) 99,12 %
28.01.2026 03:20 4,1 °C 3,3 °C 0,0 °C 98 % 994,6 hPa 0,0 l/m² 0 min 0 min 0 W/m² 16,1 km/h (3 Bft) 100,00 %
28.01.2026 03:25 4,1 °C 3,3 °C 0,0 °C 98 % 994,7 hPa 0,0 l/m² 0 min 0 min 0 W/m² 16,1 km/h (3 Bft) 100,00 %
28.01.2026 03:30 4,1 °C 3,3 °C 0,0 °C 98 % 994,7 hPa 0,0 l/m² 0 min 0 min 0 W/m² 16,1 km/h (3 Bft) 100,00 %
28.01.2026 03:35 4,1 °C 3,3 °C 0,0 °C 98 % 994,6 hPa 0,0 l/m² 0 min 0 min 0 W/m² 9,7 km/h (2 Bft) 73,68 %
28.01.2026 03:40 4,1 °C 3,3 °C 0,0 °C 98 % 994,6 hPa 0,0 l/m² 0 min 0 min 0 W/m² 6,4 km/h (2 Bft) 100,00 %
28.01.2026 03:45 4,1 °C 3,3 °C 0,0 °C 98 % 994,5 hPa 0,0 l/m² 0 min 0 min 0 W/m² 12,9 km/h (3 Bft) 100,00 %
28.01.2026 03:50 4,1 °C 3,3 °C 0,0 °C 98 % 994,5 hPa 0,0 l/m² 0 min 0 min 0 W/m² 12,9 km/h (3 Bft) 100,00 %
28.01.2026 03:55 4,1 °C 3,3 °C 0,0 °C 98 % 994,6 hPa 0,0 l/m² 0 min 0 min 0 W/m² 16,1 km/h (3 Bft) 100,00 %
28.01.2026 04:00 4,1 °C 3,3 °C 0,0 °C 98 % 994,6 hPa 0,0 l/m² 0 min 0 min 0 W/m² 12,9 km/h (3 Bft) 100,00 %
28.01.2026 04:05 4,1 °C 3,3 °C 0,0 °C 98 % 994,5 hPa 0,0 l/m² 0 min 0 min 0 W/m² 12,9 km/h (3 Bft) 93,86 %
28.01.2026 04:10 4,1 °C 3,3 °C 0,0 °C 98 % 994,5 hPa 0,0 l/m² 0 min 0 min 0 W/m² 12,9 km/h (3 Bft) 99,12 %
28.01.2026 04:15 4,1 °C 3,3 °C 0,0 °C 98 % 994,4 hPa 0,0 l/m² 0 min 0 min 0 W/m² 6,4 km/h (2 Bft) 100,00 %
28.01.2026 04:20 4,0 °C 3,3 °C 0,0 °C 98 % 994,4 hPa 0,0 l/m² 0 min 0 min 0 W/m² 6,4 km/h (2 Bft) 97,37 %
28.01.2026 04:25 4,0 °C 3,3 °C 0,0 °C 98 % 994,4 hPa 0,0 l/m² 0 min 0 min 0 W/m² 3,2 km/h (1 Bft) 100,00 %
28.01.2026 04:30 4,0 °C 3,3 °C 0,0 °C 98 % 994,5 hPa 0,0 l/m² 0 min 0 min 0 W/m² 6,4 km/h (2 Bft) 99,12 %
28.01.2026 04:35 3,9 °C 3,3 °C 0,0 °C 98 % 994,4 hPa 0,0 l/m² 0 min 0 min 0 W/m² 6,4 km/h (2 Bft) 99,12 %
28.01.2026 04:40 3,9 °C 3,3 °C 0,0 °C 98 % 994,4 hPa 0,0 l/m² 0 min 0 min 0 W/m² 3,2 km/h (1 Bft) 99,12 %
28.01.2026 04:45 3,9 °C 3,3 °C 0,0 °C 98 % 994,3 hPa 0,0 l/m² 0 min 0 min 0 W/m² 6,4 km/h (2 Bft) 96,49 %
28.01.2026 04:50 3,9 °C 3,3 °C 0,0 °C 98 % 994,4 hPa 0,0 l/m² 0 min 0 min 0 W/m² 3,2 km/h (1 Bft) 95,61 %
28.01.2026 04:55 3,9 °C 3,3 °C 0,0 °C 98 % 994,3 hPa 0,0 l/m² 0 min 0 min 0 W/m² 0,0 km/h (0 Bft) 95,61 %
28.01.2026 05:00 3,8 °C 3,3 °C 0,0 °C 98 % 994,4 hPa 0,0 l/m² 0 min 0 min 0 W/m² 3,2 km/h (1 Bft) 96,49 %
28.01.2026 05:05 3,8 °C 3,3 °C 0,0 °C 98 % 994,4 hPa 0,0 l/m² 0 min 0 min 0 W/m² 3,2 km/h (1 Bft) 97,37 %
28.01.2026 05:10 3,8 °C 3,3 °C 0,0 °C 98 % 994,5 hPa 0,0 l/m² 0 min 0 min 0 W/m² 6,4 km/h (2 Bft) 99,12 %
28.01.2026 05:15 3,8 °C 3,3 °C 0,0 °C 98 % 994,5 hPa 0,0 l/m² 0 min 0 min 0 W/m² 6,4 km/h (2 Bft) 100,00 %
28.01.2026 05:20 3,8 °C 3,3 °C 0,0 °C 98 % 994,5 hPa 0,0 l/m² 0 min 0 min 0 W/m² 3,2 km/h (1 Bft) 99,12 %
28.01.2026 05:25 3,9 °C 3,3 °C 0,0 °C 98 % 994,4 hPa 0,0 l/m² 0 min 0 min 0 W/m² 3,2 km/h (1 Bft) 100,00 %
28.01.2026 05:30 3,9 °C 3,3 °C 0,0 °C 98 % 994,4 hPa 0,0 l/m² 0 min 0 min 0 W/m² 6,4 km/h (2 Bft) 100,00 %
28.01.2026 05:35 3,9 °C 3,3 °C 0,0 °C 98 % 994,5 hPa 0,0 l/m² 0 min 0 min 0 W/m² 3,2 km/h (1 Bft) 100,00 %
28.01.2026 05:40 3,9 °C 3,3 °C 0,0 °C 98 % 994,5 hPa 0,0 l/m² 0 min 0 min 0 W/m² 3,2 km/h (1 Bft) 100,00 %
28.01.2026 05:45 3,9 °C 3,3 °C 0,0 °C 98 % 994,5 hPa 0,0 l/m² 0 min 0 min 0 W/m² 3,2 km/h (1 Bft) 100,00 %
28.01.2026 05:50 3,9 °C 3,3 °C 0,0 °C 98 % 994,5 hPa 0,0 l/m² 0 min 0 min 0 W/m² 3,2 km/h (1 Bft) 100,00 %
28.01.2026 05:55 3,9 °C 3,3 °C 0,0 °C 98 % 994,6 hPa 0,0 l/m² 0 min 0 min 0 W/m² 3,2 km/h (1 Bft) 100,00 %
28.01.2026 06:00 3,9 °C 3,3 °C 0,0 °C 98 % 994,5 hPa 0,0 l/m² 0 min 0 min 0 W/m² 3,2 km/h (1 Bft) 100,00 %
28.01.2026 06:05 3,9 °C 3,3 °C 0,0 °C 98 % 994,5 hPa 0,0 l/m² 0 min 0 min 0 W/m² 0,0 km/h (0 Bft) 100,00 %
28.01.2026 06:10 3,9 °C 3,3 °C 0,0 °C 98 % 994,5 hPa 0,0 l/m² 0 min 0 min 0 W/m² 3,2 km/h (1 Bft) 100,00 %
28.01.2026 06:15 4,0 °C 3,3 °C 0,0 °C 98 % 994,5 hPa 0,0 l/m² 0 min 0 min 0 W/m² 0,0 km/h (0 Bft) 100,00 %
28.01.2026 06:20 4,0 °C 3,3 °C 0,0 °C 98 % 994,5 hPa 0,0 l/m² 0 min 0 min 0 W/m² 3,2 km/h (1 Bft) 100,00 %
28.01.2026 06:25 4,0 °C 3,3 °C 0,0 °C 98 % 994,5 hPa 0,0 l/m² 0 min 0 min 0 W/m² 3,2 km/h (1 Bft) 100,00 %
28.01.2026 06:30 4,0 °C 3,3 °C 0,0 °C 98 % 994,5 hPa 0,0 l/m² 0 min 0 min 0 W/m² 0,0 km/h (0 Bft) 100,00 %
28.01.2026 06:35 4,0 °C 3,3 °C 0,0 °C 98 % 994,5 hPa 0,0 l/m² 0 min 0 min 0 W/m² 0,0 km/h (0 Bft) 100,00 %
28.01.2026 06:40 4,0 °C 3,3 °C 0,0 °C 98 % 994,5 hPa 0,0 l/m² 0 min 0 min 0 W/m² 0,0 km/h (0 Bft) 99,12 %
28.01.2026 06:45 3,9 °C 3,3 °C 0,0 °C 98 % 994,6 hPa 0,0 l/m² 0 min 0 min 0 W/m² 0,0 km/h (0 Bft) 97,37 %
28.01.2026 06:50 4,0 °C 3,3 °C 0,0 °C 98 % 994,5 hPa 0,0 l/m² 0 min 0 min 0 W/m² 0,0 km/h (0 Bft) 98,25 %
28.01.2026 06:55 4,0 °C 3,3 °C 0,0 °C 98 % 994,5 hPa 0,0 l/m² 0 min 0 min 0 W/m² 0,0 km/h (0 Bft) 97,37 %
28.01.2026 07:00 4,0 °C 3,3 °C 0,0 °C 98 % 994,6 hPa 0,0 l/m² 0 min 0 min 0 W/m² 0,0 km/h (0 Bft) 98,25 %
28.01.2026 07:05 3,9 °C 3,3 °C 0,0 °C 98 % 994,6 hPa 0,0 l/m² 0 min 0 min 0 W/m² 0,0 km/h (0 Bft) 99,12 %
28.01.2026 07:10 3,9 °C 3,3 °C 0,0 °C 98 % 994,6 hPa 0,0 l/m² 0 min 0 min 0 W/m² 0,0 km/h (0 Bft) 99,12 %
28.01.2026 07:15 3,9 °C 3,3 °C 0,0 °C 98 % 994,5 hPa 0,0 l/m² 0 min 0 min 0 W/m² 0,0 km/h (0 Bft) 98,25 %
28.01.2026 07:20 4,0 °C 3,3 °C 0,0 °C 98 % 994,5 hPa 0,0 l/m² 0 min 0 min 0 W/m² 0,0 km/h (0 Bft) 100,00 %
28.01.2026 07:25 3,9 °C 3,3 °C 0,0 °C 98 % 994,5 hPa 0,0 l/m² 0 min 0 min 0 W/m² 0,0 km/h (0 Bft) 100,00 %
28.01.2026 07:30 3,9 °C 3,3 °C 0,0 °C 98 % 994,5 hPa 0,0 l/m² 0 min 0 min 0 W/m² 0,0 km/h (0 Bft) 100,00 %
28.01.2026 07:35 3,9 °C 3,3 °C 0,0 °C 98 % 994,5 hPa 0,0 l/m² 0 min 0 min 0 W/m² 0,0 km/h (0 Bft) 100,00 %
28.01.2026 07:40 3,9 °C 3,3 °C 0,0 °C 98 % 994,5 hPa 0,0 l/m² 0 min 0 min 0 W/m² 0,0 km/h (0 Bft) 100,00 %
28.01.2026 07:45 3,9 °C 3,3 °C 0,0 °C 98 % 994,6 hPa 0,0 l/m² 0 min 0 min 0 W/m² 0,0 km/h (0 Bft) 100,00 %
28.01.2026 07:50 3,9 °C 3,3 °C 0,0 °C 98 % 994,6 hPa 0,0 l/m² 0 min 0 min 0 W/m² 0,0 km/h (0 Bft) 99,12 %
28.01.2026 07:55 3,9 °C 3,3 °C 0,0 °C 98 % 994,6 hPa 0,0 l/m² 0 min 0 min 0 W/m² 0,0 km/h (0 Bft) 100,00 %
28.01.2026 08:00 3,9 °C 3,3 °C 0,0 °C 98 % 994,7 hPa 0,0 l/m² 0 min 0 min 0 W/m² 0,0 km/h (0 Bft) 100,00 %
28.01.2026 08:05 3,9 °C 3,3 °C 0,6 °C 98 % 994,6 hPa 0,0 l/m² 0 min 0 min 0 W/m² 0,0 km/h (0 Bft) 98,25 %
28.01.2026 08:10 3,9 °C 3,3 °C 0,6 °C 98 % 994,6 hPa 0,0 l/m² 0 min 0 min 0 W/m² 0,0 km/h (0 Bft) 100,00 %
28.01.2026 08:15 3,9 °C 3,3 °C 0,6 °C 98 % 994,6 hPa 0,0 l/m² 0 min 0 min 0 W/m² 0,0 km/h (0 Bft) 100,00 %
28.01.2026 08:20 3,9 °C 3,3 °C 0,6 °C 98 % 994,6 hPa 0,0 l/m² 0 min 0 min 0 W/m² 0,0 km/h (0 Bft) 98,31 %
28.01.2026 08:22 3,9 °C 3,3 °C 0,6 °C 98 % 994,6 hPa 0,0 l/m² 0 min 0 min 0 W/m² 0,0 km/h (0 Bft) 98,15 %
28.01.2026 08:24 3,9 °C 3,3 °C 0,6 °C 98 % 994,6 hPa 0,0 l/m² 0 min 0 min 0 W/m² 0,0 km/h (0 Bft) 95,00 %
28.01.2026 08:26 3,9 °C 3,3 °C 0,6 °C 98 % 994,7 hPa 0,0 l/m² 0 min 0 min 0 W/m² 0,0 km/h (0 Bft) 90,57 %
28.01.2026 08:28 3,9 °C 3,3 °C 0,6 °C 98 % 994,6 hPa 0,0 l/m² 0 min 0 min 0 W/m² 0,0 km/h (0 Bft) 92,68 %
28.01.2026 08:30 3,9 °C 3,3 °C 0,6 °C 98 % 994,6 hPa 0,0 l/m² 0 min 0 min 0 W/m² 0,0 km/h (0 Bft) 96,23 %
28.01.2026 08:32 3,9 °C 3,3 °C 0,6 °C 98 % 994,6 hPa 0,0 l/m² 0 min 0 min 0 W/m² 0,0 km/h (0 Bft) 95,00 %
28.01.2026 08:34 3,9 °C 3,3 °C 0,6 °C 98 % 994,6 hPa 0,0 l/m² 0 min 0 min 0 W/m² 0,0 km/h (0 Bft) 90,91 %
28.01.2026 08:36 3,9 °C 3,3 °C 0,6 °C 98 % 994,6 hPa 0,0 l/m² 0 min 0 min 0 W/m² 0,0 km/h (0 Bft) 97,44 %
28.01.2026 08:38 3,9 °C 3,3 °C 0,6 °C 98 % 994,6 hPa 0,0 l/m² 0 min 0 min 0 W/m² 0,0 km/h (0 Bft) 97,73 %
28.01.2026 08:40 3,9 °C 3,3 °C 0,6 °C 98 % 994,7 hPa 0,0 l/m² 0 min 0 min 0 W/m² 0,0 km/h (0 Bft) 96,00 %
28.01.2026 08:42 3,9 °C 3,3 °C 0,6 °C 98 % 994,7 hPa 0,0 l/m² 0 min 0 min 0 W/m² 0,0 km/h (0 Bft) 97,83 %
28.01.2026 08:44 3,9 °C 3,3 °C 0,6 °C 98 % 994,8 hPa 0,0 l/m² 0 min 0 min 0 W/m² 0,0 km/h (0 Bft) 97,87 %
28.01.2026 08:46 3,9 °C 3,3 °C 0,6 °C 98 % 994,8 hPa 0,0 l/m² 0 min 0 min 0 W/m² 0,0 km/h (0 Bft) 97,87 %
28.01.2026 08:48 3,9 °C 3,3 °C 0,6 °C 98 % 994,7 hPa 0,0 l/m² 0 min 0 min 0 W/m² 0,0 km/h (0 Bft) 95,74 %
28.01.2026 08:50 3,9 °C 3,3 °C 0,6 °C 98 % 994,8 hPa 0,0 l/m² 0 min 0 min 4 W/m² 0,0 km/h (0 Bft) 97,73 %
28.01.2026 08:52 4,0 °C 3,3 °C 0,6 °C 98 % 994,7 hPa 0,0 l/m² 0 min 0 min 5 W/m² 0,0 km/h (0 Bft) 94,64 %
28.01.2026 08:54 4,0 °C 3,3 °C 0,6 °C 98 % 994,7 hPa 0,0 l/m² 0 min 0 min 5 W/m² 0,0 km/h (0 Bft) 97,87 %
28.01.2026 08:56 4,0 °C 3,3 °C 0,6 °C 98 % 994,7 hPa 0,0 l/m² 0 min 0 min 5 W/m² 0,0 km/h (0 Bft) 95,83 %
28.01.2026 08:58 4,0 °C 3,3 °C 0,6 °C 98 % 994,7 hPa 0,0 l/m² 0 min 0 min 5 W/m² 0,0 km/h (0 Bft) 100,00 %
28.01.2026 09:00 4,0 °C 3,3 °C 0,6 °C 98 % 994,7 hPa 0,0 l/m² 0 min 0 min 5 W/m² 0,0 km/h (0 Bft) 100,00 %
28.01.2026 09:02 4,0 °C 3,3 °C 0,6 °C 98 % 994,8 hPa 0,0 l/m² 0 min 0 min 6 W/m² 0,0 km/h (0 Bft) 97,83 %
28.01.2026 09:04 4,0 °C 3,3 °C 0,6 °C 98 % 994,8 hPa 0,0 l/m² 0 min 0 min 7 W/m² 0,0 km/h (0 Bft) 100,00 %
28.01.2026 09:08 4,0 °C 3,3 °C 0,6 °C 98 % 994,8 hPa 0,0 l/m² 0 min 0 min 7 W/m² 0,0 km/h (0 Bft) 98,94 %
28.01.2026 09:12 4,0 °C 3,3 °C 0,6 °C 98 % 994,8 hPa 0,0 l/m² 0 min 0 min 7 W/m² 0,0 km/h (0 Bft) 97,30 %
28.01.2026 09:14 4,0 °C 3,3 °C 0,6 °C 98 % 994,8 hPa 0,0 l/m² 0 min 0 min 9 W/m² 0,0 km/h (0 Bft) 95,74 %
28.01.2026 09:16 4,0 °C 3,3 °C 0,6 °C 98 % 994,8 hPa 0,0 l/m² 0 min 0 min 9 W/m² 0,0 km/h (0 Bft) 97,92 %
28.01.2026 09:18 4,0 °C 3,3 °C 0,6 °C 98 % 994,8 hPa 0,0 l/m² 0 min 0 min 9 W/m² 0,0 km/h (0 Bft) 97,37 %
28.01.2026 09:20 4,0 °C 3,3 °C 0,6 °C 98 % 994,8 hPa 0,0 l/m² 0 min 0 min 9 W/m² 0,0 km/h (0 Bft) 96,61 %
28.01.2026 09:22 4,0 °C 3,3 °C 0,6 °C 98 % 994,8 hPa 0,0 l/m² 0 min 0 min 9 W/m² 0,0 km/h (0 Bft) 95,74 %
28.01.2026 09:24 4,1 °C 3,3 °C 0,6 °C 98 % 994,8 hPa 0,0 l/m² 0 min 0 min 9 W/m² 0,0 km/h (0 Bft) 97,78 %
28.01.2026 09:26 4,1 °C 3,3 °C 0,6 °C 98 % 994,8 hPa 0,0 l/m² 0 min 0 min 11 W/m² 3,2 km/h (1 Bft) 97,50 %
28.01.2026 09:28 4,1 °C 3,3 °C 0,6 °C 98 % 994,9 hPa 0,0 l/m² 0 min 0 min 11 W/m² 3,2 km/h (1 Bft) 96,30 %
28.01.2026 09:30 4,1 °C 3,3 °C 0,6 °C 98 % 994,9 hPa 0,0 l/m² 0 min 0 min 11 W/m² 0,0 km/h (0 Bft) 97,44 %
28.01.2026 09:32 4,1 °C 3,3 °C 0,6 °C 98 % 994,8 hPa 0,0 l/m² 0 min 0 min 12 W/m² 0,0 km/h (0 Bft) 98,28 %
28.01.2026 09:34 4,1 °C 3,9 °C 0,6 °C 98 % 994,8 hPa 0,0 l/m² 0 min 0 min 12 W/m² 0,0 km/h (0 Bft) 97,67 %
28.01.2026 09:36 4,1 °C 3,9 °C 0,6 °C 98 % 994,8 hPa 0,0 l/m² 0 min 0 min 13 W/m² 0,0 km/h (0 Bft) 97,50 %
28.01.2026 09:38 4,1 °C 3,9 °C 0,6 °C 98 % 994,8 hPa 0,0 l/m² 0 min 0 min 14 W/m² 0,0 km/h (0 Bft) 98,21 %
28.01.2026 09:40 4,1 °C 3,9 °C 0,6 °C 98 % 994,8 hPa 0,0 l/m² 0 min 0 min 15 W/m² 0,0 km/h (0 Bft) 97,78 %
28.01.2026 09:42 4,1 °C 3,9 °C 0,6 °C 98 % 994,8 hPa 0,0 l/m² 0 min 0 min 18 W/m² 0,0 km/h (0 Bft) 97,44 %
28.01.2026 09:44 4,1 °C 3,9 °C 0,6 °C 98 % 994,8 hPa 0,0 l/m² 0 min 0 min 18 W/m² 0,0 km/h (0 Bft) 98,31 %
28.01.2026 09:46 4,1 °C 3,9 °C 0,6 °C 98 % 994,8 hPa 0,0 l/m² 0 min 0 min 19 W/m² 0,0 km/h (0 Bft) 94,29 %
28.01.2026 09:48 4,1 °C 3,9 °C 0,6 °C 98 % 994,8 hPa 0,0 l/m² 0 min 0 min 19 W/m² 0,0 km/h (0 Bft) 96,61 %
28.01.2026 09:50 4,2 °C 3,9 °C 0,6 °C 98 % 994,8 hPa 0,0 l/m² 0 min 0 min 19 W/m² 0,0 km/h (0 Bft) 97,62 %
28.01.2026 09:52 4,2 °C 3,9 °C 0,6 °C 98 % 994,8 hPa 0,0 l/m² 0 min 0 min 21 W/m² 0,0 km/h (0 Bft) 97,50 %
28.01.2026 09:54 4,2 °C 3,9 °C 0,6 °C 98 % 994,9 hPa 0,0 l/m² 0 min 0 min 20 W/m² 0,0 km/h (0 Bft) 98,11 %
28.01.2026 09:56 4,2 °C 3,9 °C 0,6 °C 98 % 994,9 hPa 0,0 l/m² 0 min 0 min 21 W/m² 0,0 km/h (0 Bft) 100,00 %
28.01.2026 09:58 4,2 °C 3,9 °C 0,6 °C 98 % 995,0 hPa 0,0 l/m² 0 min 0 min 19 W/m² 0,0 km/h (0 Bft) 100,00 %
28.01.2026 10:00 4,2 °C 3,9 °C 0,6 °C 98 % 994,9 hPa 0,0 l/m² 0 min 0 min 21 W/m² 0,0 km/h (0 Bft) 100,00 %
28.01.2026 10:02 4,2 °C 3,9 °C 0,6 °C 98 % 994,9 hPa 0,0 l/m² 0 min 0 min 21 W/m² 0,0 km/h (0 Bft) 100,00 %
28.01.2026 10:04 4,2 °C 3,9 °C 0,6 °C 98 % 994,9 hPa 0,0 l/m² 0 min 0 min 21 W/m² 0,0 km/h (0 Bft) 100,00 %
28.01.2026 10:08 4,2 °C 3,9 °C 0,6 °C 98 % 994,9 hPa 0,0 l/m² 0 min 0 min 21 W/m² 0,0 km/h (0 Bft) 99,06 %
28.01.2026 10:12 4,3 °C 3,9 °C 0,6 °C 98 % 994,9 hPa 0,0 l/m² 0 min 0 min 23 W/m² 0,0 km/h (0 Bft) 100,00 %
28.01.2026 10:14 4,3 °C 3,9 °C 0,6 °C 98 % 994,9 hPa 0,0 l/m² 0 min 0 min 23 W/m² 0,0 km/h (0 Bft) 100,00 %
28.01.2026 10:16 4,3 °C 3,9 °C 0,6 °C 98 % 994,9 hPa 0,0 l/m² 0 min 0 min 25 W/m² 0,0 km/h (0 Bft) 100,00 %
28.01.2026 10:18 4,3 °C 3,9 °C 1,1 °C 98 % 994,9 hPa 0,0 l/m² 0 min 0 min 25 W/m² 0,0 km/h (0 Bft) 97,92 %
28.01.2026 10:20 4,3 °C 3,9 °C 1,1 °C 98 % 994,9 hPa 0,0 l/m² 0 min 0 min 26 W/m² 0,0 km/h (0 Bft) 97,83 %
28.01.2026 10:22 4,3 °C 3,9 °C 1,1 °C 98 % 995,0 hPa 0,0 l/m² 0 min 0 min 26 W/m² 0,0 km/h (0 Bft) 97,92 %
28.01.2026 10:24 4,3 °C 3,9 °C 1,1 °C 98 % 995,0 hPa 0,0 l/m² 0 min 0 min 26 W/m² 0,0 km/h (0 Bft) 95,65 %
28.01.2026 10:26 4,3 °C 3,9 °C 1,1 °C 98 % 995,0 hPa 0,0 l/m² 0 min 0 min 28 W/m² 0,0 km/h (0 Bft) 100,00 %
28.01.2026 10:28 4,3 °C 3,9 °C 1,1 °C 98 % 995,0 hPa 0,0 l/m² 0 min 0 min 30 W/m² 0,0 km/h (0 Bft) 97,83 %
28.01.2026 10:30 4,3 °C 4,4 °C 1,1 °C 98 % 995,0 hPa 0,0 l/m² 0 min 0 min 33 W/m² 0,0 km/h (0 Bft) 97,92 %
28.01.2026 10:32 4,4 °C 4,4 °C 1,1 °C 99 % 995,0 hPa 0,0 l/m² 0 min 0 min 33 W/m² 0,0 km/h (0 Bft) 95,65 %
28.01.2026 10:34 4,4 °C 4,4 °C 1,1 °C 99 % 995,0 hPa 0,0 l/m² 0 min 0 min 34 W/m² 0,0 km/h (0 Bft) 98,25 %
28.01.2026 10:36 4,4 °C 4,4 °C 1,1 °C 99 % 995,0 hPa 0,0 l/m² 0 min 0 min 35 W/m² 0,0 km/h (0 Bft) 97,56 %
28.01.2026 10:38 4,4 °C 4,4 °C 1,1 °C 99 % 995,0 hPa 0,0 l/m² 0 min 0 min 37 W/m² 0,0 km/h (0 Bft) 95,92 %
28.01.2026 10:40 4,4 °C 4,4 °C 1,1 °C 99 % 995,0 hPa 0,0 l/m² 0 min 0 min 35 W/m² 0,0 km/h (0 Bft) 97,73 %
28.01.2026 10:42 4,4 °C 4,4 °C 1,1 °C 99 % 995,0 hPa 0,0 l/m² 0 min 0 min 35 W/m² 0,0 km/h (0 Bft) 94,74 %
28.01.2026 10:44 4,5 °C 4,4 °C 1,1 °C 99 % 995,0 hPa 0,0 l/m² 0 min 0 min 36 W/m² 0,0 km/h (0 Bft) 93,22 %
28.01.2026 10:46 4,5 °C 4,4 °C 1,1 °C 99 % 994,9 hPa 0,0 l/m² 0 min 0 min 38 W/m² 0,0 km/h (0 Bft) 97,37 %
28.01.2026 10:48 4,5 °C 4,4 °C 1,1 °C 99 % 994,9 hPa 0,0 l/m² 0 min 0 min 40 W/m² 0,0 km/h (0 Bft) 96,49 %
28.01.2026 10:50 4,5 °C 4,4 °C 1,1 °C 99 % 994,9 hPa 0,0 l/m² 0 min 0 min 40 W/m² 0,0 km/h (0 Bft) 94,59 %
28.01.2026 10:52 4,6 °C 4,4 °C 1,1 °C 99 % 994,9 hPa 0,0 l/m² 0 min 0 min 40 W/m² 0,0 km/h (0 Bft) 95,65 %
28.01.2026 10:54 4,6 °C 4,4 °C 1,1 °C 99 % 995,0 hPa 0,0 l/m² 0 min 0 min 41 W/m² 0,0 km/h (0 Bft) 98,21 %
28.01.2026 10:56 4,6 °C 4,4 °C 1,1 °C 99 % 995,0 hPa 0,0 l/m² 0 min 0 min 40 W/m² 0,0 km/h (0 Bft) 94,74 %
28.01.2026 10:58 4,6 °C 4,4 °C 1,1 °C 99 % 995,0 hPa 0,0 l/m² 0 min 0 min 40 W/m² 0,0 km/h (0 Bft) 95,74 %
28.01.2026 11:00 4,6 °C 4,4 °C 1,1 °C 99 % 995,0 hPa 0,0 l/m² 0 min 0 min 38 W/m² 0,0 km/h (0 Bft) 97,96 %
28.01.2026 11:02 4,6 °C 4,4 °C 1,1 °C 99 % 995,1 hPa 0,0 l/m² 0 min 0 min 37 W/m² 0,0 km/h (0 Bft) 97,87 %
28.01.2026 11:04 4,6 °C 4,4 °C 1,1 °C 99 % 995,1 hPa 0,0 l/m² 0 min 0 min 36 W/m² 0,0 km/h (0 Bft) 93,75 %
28.01.2026 11:08 4,7 °C 4,4 °C 1,1 °C 99 % 995,1 hPa 0,0 l/m² 0 min 0 min 36 W/m² 0,0 km/h (0 Bft) 98,04 %
28.01.2026 11:12 4,7 °C 4,4 °C 1,1 °C 99 % 995,2 hPa 0,0 l/m² 0 min 0 min 36 W/m² 0,0 km/h (0 Bft) 97,56 %
28.01.2026 11:14 4,7 °C 4,4 °C 1,1 °C 99 % 995,2 hPa 0,0 l/m² 0 min 0 min 39 W/m² 3,2 km/h (1 Bft) 98,08 %
28.01.2026 11:16 4,7 °C 4,4 °C 1,1 °C 99 % 995,2 hPa 0,0 l/m² 0 min 0 min 39 W/m² 3,2 km/h (1 Bft) 97,14 %
28.01.2026 11:18 4,7 °C 4,4 °C 1,1 °C 99 % 995,2 hPa 0,0 l/m² 0 min 0 min 39 W/m² 3,2 km/h (1 Bft) 98,28 %
28.01.2026 11:20 4,7 °C 4,4 °C 1,1 °C 99 % 995,2 hPa 0,0 l/m² 0 min 0 min 39 W/m² 3,2 km/h (1 Bft) 97,22 %
28.01.2026 11:22 4,7 °C 4,4 °C 1,1 °C 99 % 995,2 hPa 0,0 l/m² 0 min 0 min 43 W/m² 9,7 km/h (2 Bft) 97,87 %
28.01.2026 11:24 4,7 °C 4,4 °C 1,1 °C 99 % 995,2 hPa 0,0 l/m² 0 min 0 min 44 W/m² 6,4 km/h (2 Bft) 93,10 %
28.01.2026 11:26 4,8 °C 4,4 °C 1,1 °C 99 % 995,3 hPa 0,0 l/m² 0 min 0 min 44 W/m² 6,4 km/h (2 Bft) 93,62 %
28.01.2026 11:28 4,8 °C 4,4 °C 1,1 °C 99 % 995,3 hPa 0,0 l/m² 0 min 0 min 42 W/m² 6,4 km/h (2 Bft) 97,87 %
28.01.2026 11:30 4,8 °C 4,4 °C 1,1 °C 99 % 995,3 hPa 0,0 l/m² 0 min 0 min 39 W/m² 3,2 km/h (1 Bft) 97,87 %
28.01.2026 11:32 4,8 °C 4,4 °C 1,1 °C 99 % 995,3 hPa 0,0 l/m² 0 min 0 min 39 W/m² 0,0 km/h (0 Bft) 100,00 %
28.01.2026 11:34 4,8 °C 4,4 °C 1,1 °C 99 % 995,4 hPa 0,0 l/m² 0 min 0 min 37 W/m² 0,0 km/h (0 Bft) 97,83 %
28.01.2026 11:36 4,7 °C 4,4 °C 1,1 °C 99 % 995,3 hPa 0,0 l/m² 0 min 0 min 38 W/m² 0,0 km/h (0 Bft) 100,00 %
28.01.2026 11:38 4,8 °C 4,4 °C 1,1 °C 99 % 995,4 hPa 0,0 l/m² 0 min 0 min 42 W/m² 3,2 km/h (1 Bft) 100,00 %
28.01.2026 11:40 4,7 °C 4,4 °C 1,1 °C 99 % 995,4 hPa 0,0 l/m² 0 min 0 min 38 W/m² 0,0 km/h (0 Bft) 98,31 %
28.01.2026 11:44 4,7 °C 4,4 °C 1,1 °C 99 % 995,4 hPa 0,0 l/m² 0 min 0 min 36 W/m² 3,2 km/h (1 Bft) 96,81 %
28.01.2026 11:46 4,7 °C 4,4 °C 1,1 °C 99 % 995,4 hPa 0,0 l/m² 0 min 0 min 37 W/m² 6,4 km/h (2 Bft) 97,87 %
28.01.2026 11:48 4,7 °C 4,4 °C 1,1 °C 99 % 995,4 hPa 0,0 l/m² 0 min 0 min 37 W/m² 3,2 km/h (1 Bft) 94,29 %
28.01.2026 11:50 4,7 °C 4,4 °C 1,1 °C 99 % 995,5 hPa 0,0 l/m² 0 min 0 min 37 W/m² 0,0 km/h (0 Bft) 97,83 %
28.01.2026 11:52 4,7 °C 4,4 °C 1,1 °C 99 % 995,5 hPa 0,0 l/m² 0 min 0 min 37 W/m² 6,4 km/h (2 Bft) 97,87 %
28.01.2026 11:54 4,7 °C 4,4 °C 1,1 °C 99 % 995,5 hPa 0,0 l/m² 0 min 0 min 37 W/m² 3,2 km/h (1 Bft) 98,15 %
28.01.2026 11:56 4,7 °C 4,4 °C 1,1 °C 99 % 995,5 hPa 0,0 l/m² 0 min 0 min 37 W/m² 3,2 km/h (1 Bft) 97,92 %
28.01.2026 11:58 4,7 °C 4,4 °C 1,1 °C 99 % 995,5 hPa 0,0 l/m² 0 min 0 min 36 W/m² 3,2 km/h (1 Bft) 97,96 %
28.01.2026 12:00 4,7 °C 4,4 °C 1,1 °C 99 % 995,5 hPa 0,0 l/m² 0 min 0 min 37 W/m² 0,0 km/h (0 Bft) 97,92 %
28.01.2026 12:02 4,7 °C 4,4 °C 1,1 °C 99 % 995,5 hPa 0,0 l/m² 0 min 0 min 35 W/m² 0,0 km/h (0 Bft) 95,74 %
28.01.2026 12:06 4,7 °C 4,4 °C 1,1 °C 99 % 995,5 hPa 0,0 l/m² 0 min 0 min 32 W/m² 6,4 km/h (2 Bft) 94,79 %
28.01.2026 12:08 4,7 °C 4,4 °C 1,1 °C 99 % 995,5 hPa 0,0 l/m² 0 min 0 min 37 W/m² 6,4 km/h (2 Bft) 94,79 %
28.01.2026 12:10 4,7 °C 4,4 °C 1,1 °C 99 % 995,5 hPa 0,0 l/m² 0 min 0 min 38 W/m² 6,4 km/h (2 Bft) 97,85 %
28.01.2026 12:12 4,7 °C 4,4 °C 1,1 °C 99 % 995,4 hPa 0,0 l/m² 0 min 0 min 42 W/m² 3,2 km/h (1 Bft) 95,74 %
28.01.2026 12:16 4,7 °C 4,4 °C 1,1 °C 99 % 995,4 hPa 0,0 l/m² 0 min 0 min 46 W/m² 3,2 km/h (1 Bft) 96,81 %
28.01.2026 12:18 4,7 °C 5,0 °C 1,1 °C 99 % 995,4 hPa 0,0 l/m² 0 min 0 min 49 W/m² 0,0 km/h (0 Bft) 95,74 %
28.01.2026 12:20 4,7 °C 5,0 °C 1,1 °C 99 % 995,3 hPa 0,0 l/m² 0 min 0 min 51 W/m² 0,0 km/h (0 Bft) 95,74 %
28.01.2026 12:24 4,7 °C 5,0 °C 1,1 °C 99 % 995,3 hPa 0,0 l/m² 0 min 0 min 47 W/m² 0,0 km/h (0 Bft) 93,90 %
28.01.2026 12:28 4,7 °C 5,0 °C 1,1 °C 99 % 995,4 hPa 0,0 l/m² 0 min 0 min 40 W/m² 3,2 km/h (1 Bft) 97,03 %
28.01.2026 12:30 4,7 °C 4,4 °C 1,1 °C 99 % 995,4 hPa 0,0 l/m² 0 min 0 min 40 W/m² 0,0 km/h (0 Bft) 97,78 %
28.01.2026 12:34 4,7 °C 4,4 °C 1,1 °C 99 % 995,3 hPa 0,0 l/m² 0 min 0 min 40 W/m² 6,4 km/h (2 Bft) 95,92 %
28.01.2026 12:36 4,7 °C 4,4 °C 1,1 °C 99 % 995,3 hPa 0,0 l/m² 0 min 0 min 40 W/m² 0,0 km/h (0 Bft) 97,92 %
28.01.2026 12:38 4,7 °C 4,4 °C 1,1 °C 99 % 995,2 hPa 0,0 l/m² 0 min 0 min 39 W/m² 6,4 km/h (2 Bft) 93,48 %
28.01.2026 12:40 4,8 °C 5,0 °C 1,1 °C 99 % 995,2 hPa 0,0 l/m² 0 min 0 min 45 W/m² 6,4 km/h (2 Bft) 38,71 %
28.01.2026 12:42 4,8 °C 5,0 °C 1,1 °C 99 % 995,1 hPa 0,0 l/m² 0 min 0 min 49 W/m² 6,4 km/h (2 Bft) 97,78 %
28.01.2026 12:44 4,8 °C 5,0 °C 1,7 °C 99 % 995,2 hPa 0,0 l/m² 0 min 0 min 48 W/m² 3,2 km/h (1 Bft) 100,00 %
28.01.2026 12:46 4,8 °C 5,0 °C 1,7 °C 99 % 995,1 hPa 0,0 l/m² 0 min 0 min 41 W/m² 9,7 km/h (2 Bft) 97,92 %
28.01.2026 12:48 4,8 °C 5,0 °C 1,7 °C 99 % 995,1 hPa 0,0 l/m² 0 min 0 min 40 W/m² 6,4 km/h (2 Bft) 97,87 %
28.01.2026 12:50 4,8 °C 5,0 °C 1,7 °C 99 % 995,0 hPa 0,0 l/m² 0 min 0 min 43 W/m² 6,4 km/h (2 Bft) 100,00 %
28.01.2026 12:52 4,8 °C 5,0 °C 1,7 °C 99 % 995,0 hPa 0,0 l/m² 0 min 0 min 47 W/m² 3,2 km/h (1 Bft) 100,00 %
28.01.2026 12:54 4,8 °C 5,0 °C 1,7 °C 99 % 995,0 hPa 0,0 l/m² 0 min 0 min 49 W/m² 0,0 km/h (0 Bft) 100,00 %
28.01.2026 12:56 4,8 °C 5,0 °C 1,7 °C 99 % 995,0 hPa 0,0 l/m² 0 min 0 min 52 W/m² 9,7 km/h (2 Bft) 100,00 %
28.01.2026 12:58 4,8 °C 5,0 °C 1,7 °C 99 % 995,0 hPa 0,0 l/m² 0 min 0 min 53 W/m² 6,4 km/h (2 Bft) 100,00 %
28.01.2026 13:00 4,8 °C 5,0 °C 1,7 °C 99 % 995,0 hPa 0,0 l/m² 0 min 0 min 49 W/m² 3,2 km/h (1 Bft) 100,00 %
28.01.2026 13:02 4,8 °C 5,0 °C 1,7 °C 99 % 995,1 hPa 0,0 l/m² 0 min 0 min 49 W/m² 3,2 km/h (1 Bft) 97,50 %
28.01.2026 13:04 4,8 °C 5,0 °C 1,7 °C 99 % 995,0 hPa 0,0 l/m² 0 min 0 min 54 W/m² 0,0 km/h (0 Bft) 98,00 %
28.01.2026 13:08 4,8 °C 5,0 °C 1,7 °C 99 % 994,9 hPa 0,0 l/m² 0 min 0 min 64 W/m² 3,2 km/h (1 Bft) 98,97 %
28.01.2026 13:09 4,8 °C 5,0 °C 1,1 °C 99 % 994,9 hPa 0,0 l/m² 0 min 0 min 61 W/m² 0,0 km/h (0 Bft) 97,14 %
28.01.2026 13:10 4,8 °C 5,0 °C 1,1 °C 99 % 994,9 hPa 0,0 l/m² 0 min 0 min 63 W/m² 3,2 km/h (1 Bft) 100,00 %
28.01.2026 13:14 4,8 °C 5,0 °C 1,1 °C 99 % 995,0 hPa 0,0 l/m² 0 min 0 min 55 W/m² 3,2 km/h (1 Bft) 97,83 %
28.01.2026 13:16 4,7 °C 5,0 °C 1,1 °C 99 % 995,0 hPa 0,0 l/m² 0 min 0 min 56 W/m² 6,4 km/h (2 Bft) 97,87 %
28.01.2026 13:18 4,7 °C 5,0 °C 1,1 °C 99 % 995,0 hPa 0,0 l/m² 0 min 0 min 58 W/m² 3,2 km/h (1 Bft) 100,00 %
28.01.2026 13:20 4,7 °C 5,0 °C 1,1 °C 99 % 995,0 hPa 0,0 l/m² 0 min 0 min 53 W/m² 6,4 km/h (2 Bft) 100,00 %
28.01.2026 13:22 4,7 °C 4,4 °C 1,1 °C 99 % 994,9 hPa 0,0 l/m² 0 min 0 min 49 W/m² 6,4 km/h (2 Bft) 97,87 %
28.01.2026 13:24 4,7 °C 4,4 °C 1,1 °C 99 % 995,0 hPa 0,0 l/m² 0 min 0 min 41 W/m² 9,7 km/h (2 Bft) 100,00 %
28.01.2026 13:26 4,7 °C 4,4 °C 1,1 °C 99 % 995,0 hPa 0,0 l/m² 0 min 0 min 39 W/m² 3,2 km/h (1 Bft) 100,00 %
28.01.2026 13:28 4,6 °C 4,4 °C 1,1 °C 99 % 995,0 hPa 0,0 l/m² 0 min 0 min 37 W/m² 6,4 km/h (2 Bft) 100,00 %
28.01.2026 13:30 4,6 °C 4,4 °C 1,1 °C 99 % 995,0 hPa 0,0 l/m² 0 min 0 min 29 W/m² 3,2 km/h (1 Bft) 100,00 %
28.01.2026 13:32 4,6 °C 4,4 °C 1,1 °C 99 % 995,0 hPa 0,0 l/m² 0 min 0 min 25 W/m² 16,1 km/h (3 Bft) 98,11 %
28.01.2026 13:34 4,6 °C 4,4 °C 1,1 °C 99 % 994,9 hPa 0,0 l/m² 0 min 0 min 25 W/m² 6,4 km/h (2 Bft) 100,00 %
28.01.2026 13:36 4,5 °C 4,4 °C 1,1 °C 99 % 994,9 hPa 0,0 l/m² 0 min 0 min 25 W/m² 6,4 km/h (2 Bft) 97,87 %
28.01.2026 13:38 4,5 °C 4,4 °C 1,1 °C 99 % 994,9 hPa 0,0 l/m² 0 min 0 min 26 W/m² 12,9 km/h (3 Bft) 93,75 %
28.01.2026 13:40 4,4 °C 4,4 °C 1,1 °C 99 % 994,9 hPa 0,0 l/m² 0 min 0 min 28 W/m² 9,7 km/h (2 Bft) 97,30 %
28.01.2026 13:42 4,4 °C 3,9 °C 1,1 °C 99 % 994,9 hPa 0,0 l/m² 0 min 0 min 27 W/m² 9,7 km/h (2 Bft) 93,62 %
28.01.2026 13:44 4,4 °C 3,9 °C 1,1 °C 99 % 994,9 hPa 0,0 l/m² 0 min 0 min 26 W/m² 12,9 km/h (3 Bft) 93,88 %
28.01.2026 13:46 4,3 °C 3,9 °C 1,1 °C 99 % 994,8 hPa 0,0 l/m² 0 min 0 min 32 W/m² 9,7 km/h (2 Bft) 95,65 %
28.01.2026 13:48 4,3 °C 3,9 °C 1,1 °C 99 % 994,9 hPa 0,0 l/m² 0 min 0 min 32 W/m² 3,2 km/h (1 Bft) 97,87 %
28.01.2026 13:50 4,3 °C 3,9 °C 1,1 °C 99 % 994,8 hPa 0,0 l/m² 0 min 0 min 31 W/m² 9,7 km/h (2 Bft) 98,15 %
28.01.2026 13:52 4,3 °C 3,9 °C 1,1 °C 99 % 994,8 hPa 0,0 l/m² 0 min 0 min 28 W/m² 3,2 km/h (1 Bft) 97,87 %
28.01.2026 13:54 4,3 °C 3,9 °C 1,1 °C 99 % 994,8 hPa 0,0 l/m² 0 min 0 min 26 W/m² 6,4 km/h (2 Bft) 94,44 %
28.01.2026 13:56 4,2 °C 3,9 °C 1,1 °C 99 % 994,8 hPa 0,0 l/m² 0 min 0 min 25 W/m² 6,4 km/h (2 Bft) 98,00 %
28.01.2026 14:00 4,1 °C 3,9 °C 0,6 °C 99 % 994,9 hPa 0,0 l/m² 0 min 0 min 23 W/m² 9,7 km/h (2 Bft) 97,80 %
28.01.2026 14:02 4,1 °C 3,9 °C 0,6 °C 99 % 994,9 hPa 0,0 l/m² 0 min 0 min 24 W/m² 16,1 km/h (3 Bft) 94,64 %
28.01.2026 14:04 4,1 °C 3,9 °C 0,6 °C 99 % 994,9 hPa 0,0 l/m² 0 min 0 min 25 W/m² 9,7 km/h (2 Bft) 95,45 %
28.01.2026 14:08 4,0 °C 3,9 °C 0,6 °C 98 % 995,0 hPa 0,0 l/m² 0 min 0 min 25 W/m² 6,4 km/h (2 Bft) 97,85 %
28.01.2026 14:10 3,9 °C 3,3 °C 0,6 °C 98 % 995,0 hPa 0,0 l/m² 0 min 0 min 24 W/m² 12,9 km/h (3 Bft) 98,25 %
28.01.2026 14:14 3,8 °C 3,3 °C 0,6 °C 98 % 995,0 hPa 0,0 l/m² 0 min 0 min 25 W/m² 12,9 km/h (3 Bft) 93,65 %
28.01.2026 14:16 3,8 °C 3,3 °C 0,6 °C 98 % 995,0 hPa 0,0 l/m² 0 min 0 min 28 W/m² 9,7 km/h (2 Bft) 95,74 %
28.01.2026 14:18 3,8 °C 3,3 °C 0,6 °C 98 % 995,0 hPa 0,0 l/m² 0 min 0 min 31 W/m² 6,4 km/h (2 Bft) 95,65 %
28.01.2026 14:20 3,8 °C 3,3 °C 0,6 °C 98 % 995,0 hPa 0,0 l/m² 0 min 0 min 32 W/m² 6,4 km/h (2 Bft) 92,86 %
28.01.2026 14:22 3,8 °C 3,3 °C 0,6 °C 98 % 995,0 hPa 0,0 l/m² 0 min 0 min 32 W/m² 12,9 km/h (3 Bft) 91,49 %
28.01.2026 14:24 3,8 °C 3,9 °C 0,6 °C 98 % 994,9 hPa 0,0 l/m² 0 min 0 min 34 W/m² 12,9 km/h (3 Bft) 93,75 %
28.01.2026 14:26 3,8 °C 3,9 °C 0,6 °C 98 % 995,0 hPa 0,0 l/m² 0 min 0 min 37 W/m² 6,4 km/h (2 Bft) 91,30 %
28.01.2026 14:30 3,8 °C 3,9 °C 0,6 °C 98 % 995,0 hPa 0,0 l/m² 0 min 0 min 36 W/m² 12,9 km/h (3 Bft) 94,79 %
28.01.2026 14:32 3,8 °C 3,9 °C 0,6 °C 98 % 995,1 hPa 0,0 l/m² 0 min 0 min 33 W/m² 9,7 km/h (2 Bft) 95,83 %
28.01.2026 14:34 3,8 °C 3,9 °C 0,6 °C 98 % 995,1 hPa 0,0 l/m² 0 min 0 min 33 W/m² 9,7 km/h (2 Bft) 95,56 %
28.01.2026 14:36 3,8 °C 3,9 °C 0,6 °C 98 % 995,1 hPa 0,0 l/m² 0 min 0 min 29 W/m² 9,7 km/h (2 Bft) 95,74 %
28.01.2026 14:38 3,8 °C 3,9 °C 0,6 °C 98 % 995,1 hPa 0,0 l/m² 0 min 0 min 32 W/m² 6,4 km/h (2 Bft) 91,49 %
28.01.2026 14:40 3,8 °C 3,9 °C 0,6 °C 98 % 995,1 hPa 0,0 l/m² 0 min 0 min 30 W/m² 6,4 km/h (2 Bft) 93,62 %
28.01.2026 14:42 3,8 °C 3,9 °C 0,6 °C 98 % 995,1 hPa 0,0 l/m² 0 min 0 min 26 W/m² 9,7 km/h (2 Bft) 95,56 %
28.01.2026 14:44 3,7 °C 3,9 °C 0,6 °C 98 % 995,2 hPa 0,0 l/m² 0 min 0 min 26 W/m² 6,4 km/h (2 Bft) 93,75 %
28.01.2026 14:46 3,7 °C 3,9 °C 0,6 °C 98 % 995,2 hPa 0,0 l/m² 0 min 0 min 27 W/m² 6,4 km/h (2 Bft) 95,92 %
28.01.2026 14:48 3,7 °C 3,9 °C 0,6 °C 98 % 995,2 hPa 0,0 l/m² 0 min 0 min 28 W/m² 6,4 km/h (2 Bft) 97,92 %
28.01.2026 14:52 3,7 °C 3,9 °C 0,6 °C 98 % 995,3 hPa 0,0 l/m² 0 min 0 min 29 W/m² 9,7 km/h (2 Bft) 96,81 %
28.01.2026 14:54 3,7 °C 3,9 °C 0,6 °C 98 % 995,3 hPa 0,0 l/m² 0 min 0 min 27 W/m² 6,4 km/h (2 Bft) 97,83 %
28.01.2026 14:56 3,7 °C 3,3 °C 0,6 °C 98 % 995,3 hPa 0,0 l/m² 0 min 0 min 25 W/m² 3,2 km/h (1 Bft) 95,24 %
28.01.2026 15:00 3,7 °C 3,3 °C 0,6 °C 98 % 995,3 hPa 0,0 l/m² 0 min 0 min 23 W/m² 6,4 km/h (2 Bft) 98,96 %
28.01.2026 15:02 3,7 °C 3,3 °C 0,6 °C 98 % 995,3 hPa 0,0 l/m² 0 min 0 min 20 W/m² 3,2 km/h (1 Bft) 97,96 %
28.01.2026 15:04 3,7 °C 3,3 °C 0,6 °C 98 % 995,3 hPa 0,0 l/m² 0 min 0 min 21 W/m² 6,4 km/h (2 Bft) 97,83 %
28.01.2026 15:05 3,7 °C 3,3 °C 0,6 °C 98 % 995,3 hPa 0,0 l/m² 0 min 0 min 20 W/m² 9,7 km/h (2 Bft) 100,00 %
28.01.2026 15:08 3,6 °C 3,3 °C 0,6 °C 98 % 995,3 hPa 0,0 l/m² 0 min 0 min 21 W/m² 3,2 km/h (1 Bft) 100,00 %
28.01.2026 15:10 3,6 °C 3,3 °C 0,6 °C 98 % 995,3 hPa 0,0 l/m² 0 min 0 min 21 W/m² 3,2 km/h (1 Bft) 98,15 %
28.01.2026 15:12 3,6 °C 3,3 °C 0,6 °C 98 % 995,3 hPa 0,0 l/m² 0 min 0 min 20 W/m² 6,4 km/h (2 Bft) 100,00 %
28.01.2026 15:14 3,6 °C 3,3 °C 0,0 °C 98 % 995,2 hPa 0,0 l/m² 0 min 0 min 19 W/m² 12,9 km/h (3 Bft) 100,00 %
28.01.2026 15:16 3,6 °C 3,3 °C 0,0 °C 98 % 995,2 hPa 0,0 l/m² 0 min 0 min 21 W/m² 6,4 km/h (2 Bft) 100,00 %
28.01.2026 15:20 3,6 °C 3,3 °C 0,0 °C 98 % 995,3 hPa 0,0 l/m² 0 min 0 min 22 W/m² 16,1 km/h (3 Bft) 98,97 %
28.01.2026 15:24 3,6 °C 3,3 °C 0,0 °C 98 % 995,3 hPa 0,0 l/m² 0 min 0 min 22 W/m² 12,9 km/h (3 Bft) 100,00 %
28.01.2026 15:26 3,5 °C 3,3 °C 0,0 °C 98 % 995,4 hPa 0,0 l/m² 0 min 0 min 21 W/m² 6,4 km/h (2 Bft) 100,00 %
28.01.2026 15:28 3,5 °C 3,3 °C 0,0 °C 98 % 995,4 hPa 0,0 l/m² 0 min 0 min 19 W/m² 9,7 km/h (2 Bft) 100,00 %
28.01.2026 15:30 3,4 °C 3,3 °C 0,0 °C 98 % 995,5 hPa 0,0 l/m² 0 min 0 min 16 W/m² 12,9 km/h (3 Bft) 100,00 %
28.01.2026 15:32 3,4 °C 3,3 °C 0,0 °C 98 % 995,5 hPa 0,0 l/m² 0 min 0 min 14 W/m² 6,4 km/h (2 Bft) 95,83 %
28.01.2026 15:36 3,3 °C 2,8 °C 0,0 °C 98 % 995,6 hPa 0,0 l/m² 0 min 0 min 13 W/m² 19,3 km/h (3 Bft) 98,96 %
28.01.2026 15:38 3,3 °C 2,8 °C 0,0 °C 98 % 995,6 hPa 0,0 l/m² 0 min 0 min 12 W/m² 12,9 km/h (3 Bft) 100,00 %
28.01.2026 15:40 3,3 °C 2,8 °C 0,0 °C 98 % 995,6 hPa 0,0 l/m² 0 min 0 min 12 W/m² 9,7 km/h (2 Bft) 100,00 %
28.01.2026 15:42 3,3 °C 2,8 °C 0,0 °C 98 % 995,6 hPa 0,0 l/m² 0 min 0 min 12 W/m² 3,2 km/h (1 Bft) 100,00 %
28.01.2026 15:46 3,2 °C 2,8 °C 0,0 °C 98 % 995,4 hPa 0,0 l/m² 0 min 0 min 11 W/m² 9,7 km/h (2 Bft) 98,86 %
28.01.2026 15:50 3,2 °C 2,8 °C 0,0 °C 98 % 995,5 hPa 0,0 l/m² 0 min 0 min 9 W/m² 9,7 km/h (2 Bft) 100,00 %
28.01.2026 15:52 3,2 °C 2,8 °C 0,0 °C 98 % 995,6 hPa 0,0 l/m² 0 min 0 min 9 W/m² 3,2 km/h (1 Bft) 100,00 %
28.01.2026 15:54 3,2 °C 2,8 °C 0,0 °C 98 % 995,6 hPa 0,0 l/m² 0 min 0 min 9 W/m² 9,7 km/h (2 Bft) 97,87 %
28.01.2026 15:58 3,2 °C 2,8 °C 0,0 °C 98 % 995,6 hPa 0,0 l/m² 0 min 0 min 9 W/m² 6,4 km/h (2 Bft) 96,81 %
28.01.2026 16:00 3,2 °C 2,8 °C 0,0 °C 98 % 995,6 hPa 0,0 l/m² 0 min 0 min 7 W/m² 3,2 km/h (1 Bft) 100,00 %
28.01.2026 16:02 3,2 °C 2,8 °C 0,0 °C 98 % 995,6 hPa 0,0 l/m² 0 min 0 min 7 W/m² 12,9 km/h (3 Bft) 97,87 %
28.01.2026 16:04 3,2 °C 2,8 °C 0,0 °C 98 % 995,6 hPa 0,0 l/m² 0 min 0 min 7 W/m² 6,4 km/h (2 Bft) 97,96 %
28.01.2026 16:08 3,1 °C 2,8 °C 0,0 °C 98 % 995,7 hPa 0,0 l/m² 0 min 0 min 6 W/m² 3,2 km/h (1 Bft) 97,14 %
28.01.2026 16:09 3,1 °C 2,8 °C 0,0 °C 98 % 995,6 hPa 0,0 l/m² 0 min 0 min 5 W/m² 3,2 km/h (1 Bft) 97,20 %
28.01.2026 16:10 3,1 °C 2,8 °C 0,0 °C 98 % 995,6 hPa 0,0 l/m² 0 min 0 min 6 W/m² 6,4 km/h (2 Bft) 100,00 %
28.01.2026 16:14 3,1 °C 2,8 °C 0,0 °C 98 % 995,7 hPa 0,0 l/m² 0 min 0 min 7 W/m² 9,7 km/h (2 Bft) 96,55 %
28.01.2026 16:18 3,1 °C 2,8 °C 0,0 °C 98 % 995,6 hPa 0,0 l/m² 0 min 0 min 7 W/m² 12,9 km/h (3 Bft) 100,00 %
28.01.2026 16:20 3,1 °C 2,8 °C 0,0 °C 98 % 995,6 hPa 0,0 l/m² 0 min 0 min 7 W/m² 6,4 km/h (2 Bft) 95,74 %
28.01.2026 16:22 3,1 °C 2,8 °C -0,6 °C 98 % 995,6 hPa 0,0 l/m² 0 min 0 min 7 W/m² 12,9 km/h (3 Bft) 98,31 %
28.01.2026 16:24 3,0 °C 2,8 °C -0,6 °C 98 % 995,6 hPa 0,0 l/m² 0 min 0 min 7 W/m² 6,4 km/h (2 Bft) 97,14 %
28.01.2026 16:26 3,0 °C 2,8 °C -0,6 °C 98 % 995,7 hPa 0,0 l/m² 0 min 0 min 7 W/m² 6,4 km/h (2 Bft) 97,87 %
28.01.2026 16:28 2,9 °C 2,8 °C -0,6 °C 98 % 995,7 hPa 0,0 l/m² 0 min 0 min 6 W/m² 9,7 km/h (2 Bft) 97,87 %
28.01.2026 16:30 2,9 °C 2,8 °C -0,6 °C 98 % 995,7 hPa 0,0 l/m² 0 min 0 min 5 W/m² 3,2 km/h (1 Bft) 97,83 %
28.01.2026 16:32 2,9 °C 2,8 °C -0,6 °C 98 % 995,7 hPa 0,0 l/m² 0 min 0 min 5 W/m² 3,2 km/h (1 Bft) 100,00 %
28.01.2026 16:34 2,9 °C 2,8 °C -0,6 °C 98 % 995,7 hPa 0,0 l/m² 0 min 0 min 5 W/m² 9,7 km/h (2 Bft) 100,00 %
28.01.2026 16:36 2,9 °C 2,8 °C -0,6 °C 98 % 995,7 hPa 0,0 l/m² 0 min 0 min 5 W/m² 12,9 km/h (3 Bft) 96,61 %
28.01.2026 16:38 2,9 °C 2,8 °C -0,6 °C 98 % 995,7 hPa 0,0 l/m² 0 min 0 min 3 W/m² 6,4 km/h (2 Bft) 97,78 %
28.01.2026 16:40 2,9 °C 2,8 °C -0,6 °C 98 % 995,7 hPa 0,0 l/m² 0 min 0 min 0 W/m² 12,9 km/h (3 Bft) 100,00 %
28.01.2026 16:42 2,8 °C 2,2 °C -0,6 °C 98 % 995,7 hPa 0,0 l/m² 0 min 0 min 0 W/m² 12,9 km/h (3 Bft) 97,78 %
28.01.2026 16:44 2,8 °C 2,8 °C -0,6 °C 98 % 995,7 hPa 0,0 l/m² 0 min 0 min 0 W/m² 6,4 km/h (2 Bft) 97,87 %
28.01.2026 16:46 2,8 °C 2,8 °C -0,6 °C 98 % 995,7 hPa 0,0 l/m² 0 min 0 min 0 W/m² 9,7 km/h (2 Bft) 93,62 %
28.01.2026 16:48 2,8 °C 2,8 °C -0,6 °C 98 % 995,7 hPa 0,0 l/m² 0 min 0 min 0 W/m² 6,4 km/h (2 Bft) 97,87 %
28.01.2026 16:50 2,8 °C 2,2 °C -0,6 °C 98 % 995,7 hPa 0,0 l/m² 0 min 0 min 0 W/m² 12,9 km/h (3 Bft) 95,74 %
28.01.2026 16:52 2,8 °C 2,2 °C -0,6 °C 98 % 995,7 hPa 0,0 l/m² 0 min 0 min 0 W/m² 9,7 km/h (2 Bft) 95,83 %
28.01.2026 16:56 2,7 °C 2,2 °C -0,6 °C 98 % 995,7 hPa 0,0 l/m² 0 min 0 min 0 W/m² 16,1 km/h (3 Bft) 92,68 %
28.01.2026 16:58 2,7 °C 2,2 °C -0,6 °C 98 % 995,7 hPa 0,0 l/m² 0 min 0 min 0 W/m² 9,7 km/h (2 Bft) 96,49 %
28.01.2026 17:00 2,7 °C 2,2 °C -0,6 °C 98 % 995,8 hPa 0,0 l/m² 0 min 0 min 0 W/m² 6,4 km/h (2 Bft) 94,59 %
28.01.2026 17:02 2,7 °C 2,2 °C -0,6 °C 98 % 995,8 hPa 0,0 l/m² 0 min 0 min 0 W/m² 3,2 km/h (1 Bft) 94,83 %
28.01.2026 17:04 2,6 °C 2,2 °C -0,6 °C 98 % 995,8 hPa 0,0 l/m² 0 min 0 min 0 W/m² 9,7 km/h (2 Bft) 93,33 %
28.01.2026 17:08 2,6 °C 2,2 °C -0,6 °C 98 % 995,8 hPa 0,0 l/m² 0 min 0 min 0 W/m² 9,7 km/h (2 Bft) 94,25 %
28.01.2026 17:10 2,6 °C 2,2 °C -0,6 °C 98 % 995,9 hPa 0,0 l/m² 0 min 0 min 0 W/m² 12,9 km/h (3 Bft) 95,65 %
28.01.2026 17:14 2,5 °C 2,2 °C -0,6 °C 98 % 995,9 hPa 0,0 l/m² 0 min 0 min 0 W/m² 12,9 km/h (3 Bft) 95,74 %
28.01.2026 17:16 2,4 °C 2,2 °C -0,6 °C 98 % 995,9 hPa 0,0 l/m² 0 min 0 min 0 W/m² 19,3 km/h (3 Bft) 96,15 %
28.01.2026 17:18 2,4 °C 2,2 °C -0,6 °C 98 % 996,0 hPa 0,0 l/m² 0 min 0 min 0 W/m² 12,9 km/h (3 Bft) 95,83 %
28.01.2026 17:20 2,4 °C 2,2 °C -0,6 °C 98 % 996,0 hPa 0,0 l/m² 0 min 0 min 0 W/m² 3,2 km/h (1 Bft) 95,65 %
28.01.2026 17:22 2,4 °C 2,2 °C -0,6 °C 98 % 996,0 hPa 0,0 l/m² 0 min 0 min 0 W/m² 3,2 km/h (1 Bft) 95,83 %
28.01.2026 17:24 2,4 °C 2,2 °C -0,6 °C 98 % 995,9 hPa 0,0 l/m² 0 min 0 min 0 W/m² 9,7 km/h (2 Bft) 93,88 %
28.01.2026 17:28 2,4 °C 2,2 °C -0,6 °C 98 % 995,9 hPa 0,0 l/m² 0 min 0 min 0 W/m² 9,7 km/h (2 Bft) 94,57 %
28.01.2026 17:30 2,4 °C 2,2 °C -0,6 °C 98 % 995,9 hPa 0,0 l/m² 0 min 0 min 0 W/m² 6,4 km/h (2 Bft) 93,48 %
28.01.2026 17:32 2,3 °C 2,2 °C -0,6 °C 98 % 995,9 hPa 0,0 l/m² 0 min 0 min 0 W/m² 9,7 km/h (2 Bft) 97,87 %
28.01.2026 17:34 2,3 °C 2,2 °C -1,1 °C 98 % 995,9 hPa 0,0 l/m² 0 min 0 min 0 W/m² 6,4 km/h (2 Bft) 97,50 %
28.01.2026 17:36 2,3 °C 2,2 °C -1,1 °C 98 % 996,0 hPa 0,0 l/m² 0 min 0 min 0 W/m² 12,9 km/h (3 Bft) 50,00 %
28.01.2026 17:40 2,3 °C 1,7 °C -1,1 °C 97 % 995,9 hPa 0,0 l/m² 0 min 0 min 0 W/m² 12,9 km/h (3 Bft) 96,00 %
28.01.2026 17:44 2,3 °C 2,2 °C -1,1 °C 97 % 995,9 hPa 0,0 l/m² 0 min 0 min 0 W/m² 9,7 km/h (2 Bft) 98,84 %
28.01.2026 17:48 2,2 °C 1,7 °C -1,1 °C 98 % 995,9 hPa 0,0 l/m² 0 min 0 min 0 W/m² 16,1 km/h (3 Bft) 99,01 %
28.01.2026 17:50 2,2 °C 1,7 °C -1,1 °C 98 % 995,9 hPa 0,0 l/m² 0 min 0 min 0 W/m² 9,7 km/h (2 Bft) 97,92 %
28.01.2026 17:52 2,2 °C 1,7 °C -1,1 °C 98 % 996,0 hPa 0,0 l/m² 0 min 0 min 0 W/m² 9,7 km/h (2 Bft) 97,22 %
28.01.2026 17:56 2,2 °C 1,7 °C -1,1 °C 97 % 996,1 hPa 0,0 l/m² 0 min 0 min 0 W/m² 12,9 km/h (3 Bft) 96,88 %
28.01.2026 18:00 2,1 °C 1,7 °C -1,1 °C 97 % 996,1 hPa 0,0 l/m² 0 min 0 min 0 W/m² 12,9 km/h (3 Bft) 97,87 %
28.01.2026 18:02 2,1 °C 1,7 °C -1,1 °C 97 % 996,1 hPa 0,0 l/m² 0 min 0 min 0 W/m² 6,4 km/h (2 Bft) 98,18 %
28.01.2026 18:04 2,1 °C 1,7 °C -1,1 °C 97 % 996,1 hPa 0,0 l/m² 0 min 0 min 0 W/m² 3,2 km/h (1 Bft) 97,22 %
28.01.2026 18:05 2,1 °C 1,7 °C -1,1 °C 97 % 996,1 hPa 0,0 l/m² 0 min 0 min 0 W/m² 19,3 km/h (3 Bft) 100,00 %
28.01.2026 18:08 2,0 °C 1,7 °C -1,1 °C 97 % 996,1 hPa 0,0 l/m² 0 min 0 min 0 W/m² 12,9 km/h (3 Bft) 97,73 %
28.01.2026 18:12 2,0 °C 1,7 °C -1,1 °C 97 % 996,1 hPa 0,0 l/m² 0 min 0 min 0 W/m² 9,7 km/h (2 Bft) 96,88 %
28.01.2026 18:14 2,0 °C 1,7 °C -1,1 °C 97 % 996,1 hPa 0,0 l/m² 0 min 0 min 0 W/m² 6,4 km/h (2 Bft) 95,74 %
28.01.2026 18:15 1,9 °C 1,7 °C -1,1 °C 97 % 996,1 hPa 0,0 l/m² 0 min 0 min 0 W/m² 3,2 km/h (1 Bft) 97,04 %
28.01.2026 18:20 1,9 °C 1,7 °C -1,1 °C 97 % 996,2 hPa 0,0 l/m² 0 min 0 min 0 W/m² 6,4 km/h (2 Bft) 100,00 %
28.01.2026 18:22 1,9 °C 1,7 °C -1,1 °C 97 % 996,2 hPa 0,0 l/m² 0 min 0 min 0 W/m² 9,7 km/h (2 Bft) 97,92 %
28.01.2026 18:26 1,9 °C 1,7 °C -1,1 °C 97 % 996,2 hPa 0,0 l/m² 0 min 0 min 0 W/m² 9,7 km/h (2 Bft) 100,00 %
28.01.2026 18:30 1,9 °C 1,7 °C -1,1 °C 97 % 996,3 hPa 0,0 l/m² 0 min 0 min 0 W/m² 3,2 km/h (1 Bft) 98,89 %
28.01.2026 18:32 1,9 °C 1,7 °C -1,1 °C 97 % 996,3 hPa 0,0 l/m² 0 min 0 min 0 W/m² 6,4 km/h (2 Bft) 100,00 %
28.01.2026 18:34 1,8 °C 1,7 °C -1,1 °C 97 % 996,3 hPa 0,0 l/m² 0 min 0 min 0 W/m² 3,2 km/h (1 Bft) 100,00 %
28.01.2026 18:36 1,8 °C 1,7 °C -1,1 °C 97 % 996,3 hPa 0,0 l/m² 0 min 0 min 0 W/m² 9,7 km/h (2 Bft) 97,83 %
28.01.2026 18:38 1,8 °C 1,7 °C -1,1 °C 97 % 996,3 hPa 0,0 l/m² 0 min 0 min 0 W/m² 16,1 km/h (3 Bft) 100,00 %
28.01.2026 18:40 1,8 °C 1,1 °C -1,1 °C 97 % 996,3 hPa 0,0 l/m² 0 min 0 min 0 W/m² 12,9 km/h (3 Bft) 100,00 %
28.01.2026 18:44 1,8 °C 1,1 °C -1,1 °C 97 % 996,3 hPa 0,0 l/m² 0 min 0 min 0 W/m² 9,7 km/h (2 Bft) 97,87 %
28.01.2026 18:46 1,8 °C 1,1 °C -1,1 °C 97 % 996,3 hPa 0,0 l/m² 0 min 0 min 0 W/m² 9,7 km/h (2 Bft) 100,00 %
28.01.2026 18:50 1,7 °C 1,1 °C -1,1 °C 97 % 996,3 hPa 0,0 l/m² 0 min 0 min 0 W/m² 12,9 km/h (3 Bft) 98,92 %
28.01.2026 18:52 1,7 °C 1,1 °C -1,1 °C 97 % 996,3 hPa 0,0 l/m² 0 min 0 min 0 W/m² 3,2 km/h (1 Bft) 100,00 %
28.01.2026 18:54 1,7 °C 1,1 °C -1,1 °C 97 % 996,4 hPa 0,0 l/m² 0 min 0 min 0 W/m² 12,9 km/h (3 Bft) 95,65 %
28.01.2026 18:56 1,7 °C 1,7 °C -1,1 °C 97 % 996,4 hPa 0,0 l/m² 0 min 0 min 0 W/m² 3,2 km/h (1 Bft) 100,00 %
28.01.2026 18:58 1,7 °C 1,1 °C -1,1 °C 97 % 996,4 hPa 0,0 l/m² 0 min 0 min 0 W/m² 0,0 km/h (0 Bft) 100,00 %
28.01.2026 19:00 1,8 °C 1,1 °C -1,1 °C 97 % 996,4 hPa 0,0 l/m² 0 min 0 min 0 W/m² 3,2 km/h (1 Bft) 95,65 %
28.01.2026 19:02 1,8 °C 1,1 °C -1,1 °C 97 % 996,4 hPa 0,0 l/m² 0 min 0 min 0 W/m² 3,2 km/h (1 Bft) 100,00 %
28.01.2026 19:04 1,7 °C 1,1 °C -1,1 °C 97 % 996,4 hPa 0,0 l/m² 0 min 0 min 0 W/m² 12,9 km/h (3 Bft) 95,83 %
28.01.2026 19:08 1,7 °C 1,1 °C -1,7 °C 97 % 996,5 hPa 0,0 l/m² 0 min 0 min 0 W/m² 12,9 km/h (3 Bft) 97,83 %
28.01.2026 19:10 1,7 °C 1,1 °C -1,7 °C 97 % 996,4 hPa 0,0 l/m² 0 min 0 min 0 W/m² 12,9 km/h (3 Bft) 100,00 %
28.01.2026 19:14 1,6 °C 1,1 °C -1,7 °C 97 % 996,4 hPa 0,0 l/m² 0 min 0 min 0 W/m² 6,4 km/h (2 Bft) 97,67 %
28.01.2026 19:18 1,6 °C 1,1 °C -1,7 °C 97 % 996,4 hPa 0,0 l/m² 0 min 0 min 0 W/m² 12,9 km/h (3 Bft) 77,66 %
28.01.2026 19:20 1,6 °C 1,1 °C -1,7 °C 97 % 996,4 hPa 0,0 l/m² 0 min 0 min 0 W/m² 12,9 km/h (3 Bft) 95,65 %
28.01.2026 19:22 1,6 °C 1,1 °C -1,7 °C 97 % 996,4 hPa 0,0 l/m² 0 min 0 min 0 W/m² 9,7 km/h (2 Bft) 100,00 %
28.01.2026 19:24 1,5 °C 1,1 °C -1,7 °C 97 % 996,4 hPa 0,0 l/m² 0 min 0 min 0 W/m² 6,4 km/h (2 Bft) 88,46 %
28.01.2026 19:26 1,5 °C 1,1 °C -1,7 °C 97 % 996,4 hPa 0,0 l/m² 0 min 0 min 0 W/m² 6,4 km/h (2 Bft) 97,78 %
28.01.2026 19:28 1,5 °C 1,1 °C -1,7 °C 97 % 996,4 hPa 0,0 l/m² 0 min 0 min 0 W/m² 6,4 km/h (2 Bft) 97,83 %
28.01.2026 19:30 1,5 °C 1,1 °C -1,7 °C 97 % 996,4 hPa 0,0 l/m² 0 min 0 min 0 W/m² 9,7 km/h (2 Bft) 92,11 %
28.01.2026 19:34 1,4 °C 1,1 °C -1,7 °C 96 % 996,4 hPa 0,0 l/m² 0 min 0 min 0 W/m² 9,7 km/h (2 Bft) 95,74 %
28.01.2026 19:38 1,4 °C 1,1 °C -1,7 °C 96 % 996,3 hPa 0,0 l/m² 0 min 0 min 0 W/m² 9,7 km/h (2 Bft) 95,70 %
28.01.2026 19:40 1,4 °C 1,1 °C -1,7 °C 96 % 996,4 hPa 0,0 l/m² 0 min 0 min 0 W/m² 9,7 km/h (2 Bft) 95,74 %
28.01.2026 19:42 1,4 °C 1,1 °C -1,7 °C 96 % 996,4 hPa 0,0 l/m² 0 min 0 min 0 W/m² 9,7 km/h (2 Bft) 95,74 %
28.01.2026 19:44 1,4 °C 1,1 °C -1,7 °C 96 % 996,4 hPa 0,0 l/m² 0 min 0 min 0 W/m² 6,4 km/h (2 Bft) 94,00 %
28.01.2026 19:46 1,4 °C 1,1 °C -1,7 °C 96 % 996,4 hPa 0,0 l/m² 0 min 0 min 0 W/m² 6,4 km/h (2 Bft) 94,64 %
28.01.2026 19:48 1,4 °C 1,1 °C -1,7 °C 96 % 996,4 hPa 0,0 l/m² 0 min 0 min 0 W/m² 9,7 km/h (2 Bft) 97,83 %
28.01.2026 19:50 1,4 °C 1,1 °C -1,7 °C 96 % 996,5 hPa 0,0 l/m² 0 min 0 min 0 W/m² 3,2 km/h (1 Bft) 94,74 %
28.01.2026 19:54 1,3 °C 1,1 °C -1,7 °C 96 % 996,5 hPa 0,0 l/m² 0 min 0 min 0 W/m² 9,7 km/h (2 Bft) 96,81 %
28.01.2026 19:56 1,3 °C 1,1 °C -1,7 °C 96 % 996,5 hPa 0,0 l/m² 0 min 0 min 0 W/m² 3,2 km/h (1 Bft) 96,43 %
28.01.2026 19:58 1,3 °C 1,1 °C -1,7 °C 96 % 996,5 hPa 0,0 l/m² 0 min 0 min 0 W/m² 3,2 km/h (1 Bft) 93,18 %
28.01.2026 20:00 1,3 °C 1,1 °C -1,7 °C 96 % 996,5 hPa 0,0 l/m² 0 min 0 min 0 W/m² 12,9 km/h (3 Bft) 97,96 %
28.01.2026 20:04 1,3 °C 1,1 °C -1,7 °C 96 % 996,5 hPa 0,0 l/m² 0 min 0 min 0 W/m² 9,7 km/h (2 Bft) 97,73 %
28.01.2026 20:07 1,3 °C 1,1 °C -1,7 °C 96 % 996,5 hPa 0,0 l/m² 0 min 0 min 0 W/m² 6,4 km/h (2 Bft) 70,00 %
28.01.2026 20:08 1,3 °C 1,1 °C -1,7 °C 96 % 996,4 hPa 0,0 l/m² 0 min 0 min 0 W/m² 0,0 km/h (0 Bft) 96,88 %
28.01.2026 20:10 1,3 °C 1,1 °C -1,7 °C 96 % 996,5 hPa 0,0 l/m² 0 min 0 min 0 W/m² 6,4 km/h (2 Bft) 87,72 %
28.01.2026 20:14 1,3 °C 1,1 °C -1,7 °C 96 % 996,5 hPa 0,0 l/m² 0 min 0 min 0 W/m² 6,4 km/h (2 Bft) 98,73 %
28.01.2026 20:16 1,3 °C 1,1 °C -1,7 °C 96 % 996,5 hPa 0,0 l/m² 0 min 0 min 0 W/m² 19,3 km/h (3 Bft) 95,74 %
28.01.2026 20:20 1,3 °C 1,1 °C -1,7 °C 96 % 996,5 hPa 0,0 l/m² 0 min 0 min 0 W/m² 12,9 km/h (3 Bft) 97,85 %
28.01.2026 20:24 1,3 °C 1,1 °C -1,7 °C 96 % 996,5 hPa 0,0 l/m² 0 min 0 min 0 W/m² 6,4 km/h (2 Bft) 97,85 %
28.01.2026 20:28 1,2 °C 1,1 °C -1,7 °C 96 % 996,5 hPa 0,0 l/m² 0 min 0 min 0 W/m² 12,9 km/h (3 Bft) 96,51 %
28.01.2026 20:30 1,3 °C 1,1 °C -1,7 °C 96 % 996,4 hPa 0,0 l/m² 0 min 0 min 0 W/m² 6,4 km/h (2 Bft) 97,87 %
28.01.2026 20:32 1,2 °C 0,6 °C -1,7 °C 96 % 996,4 hPa 0,0 l/m² 0 min 0 min 0 W/m² 6,4 km/h (2 Bft) 95,74 %
28.01.2026 20:34 1,2 °C 0,6 °C -1,7 °C 96 % 996,4 hPa 0,0 l/m² 0 min 0 min 0 W/m² 6,4 km/h (2 Bft) 97,83 %
28.01.2026 20:36 1,2 °C 0,6 °C -1,7 °C 96 % 996,4 hPa 0,0 l/m² 0 min 0 min 0 W/m² 3,2 km/h (1 Bft) 97,87 %
28.01.2026 20:38 1,2 °C 0,6 °C -1,7 °C 96 % 996,4 hPa 0,0 l/m² 0 min 0 min 0 W/m² 3,2 km/h (1 Bft) 93,62 %
28.01.2026 20:40 1,2 °C 0,6 °C -1,7 °C 96 % 996,4 hPa 0,0 l/m² 0 min 0 min 0 W/m² 3,2 km/h (1 Bft) 95,65 %
28.01.2026 20:42 1,2 °C 0,6 °C -1,7 °C 96 % 996,4 hPa 0,0 l/m² 0 min 0 min 0 W/m² 16,1 km/h (3 Bft) 96,43 %
28.01.2026 20:44 1,2 °C 0,6 °C -1,7 °C 96 % 996,4 hPa 0,0 l/m² 0 min 0 min 0 W/m² 6,4 km/h (2 Bft) 95,74 %
28.01.2026 20:46 1,2 °C 0,6 °C -1,7 °C 96 % 996,4 hPa 0,0 l/m² 0 min 0 min 0 W/m² 12,9 km/h (3 Bft) 97,37 %
28.01.2026 20:50 1,1 °C 0,6 °C -1,7 °C 95 % 996,4 hPa 0,0 l/m² 0 min 0 min 0 W/m² 9,7 km/h (2 Bft) 96,81 %
28.01.2026 20:54 1,1 °C 0,6 °C -2,2 °C 95 % 996,4 hPa 0,0 l/m² 0 min 0 min 0 W/m² 9,7 km/h (2 Bft) 98,02 %
28.01.2026 20:58 1,1 °C 0,6 °C -1,7 °C 95 % 996,4 hPa 0,0 l/m² 0 min 0 min 0 W/m² 6,4 km/h (2 Bft) 96,47 %
28.01.2026 21:00 1,1 °C 0,6 °C -1,7 °C 95 % 996,5 hPa 0,0 l/m² 0 min 0 min 0 W/m² 6,4 km/h (2 Bft) 97,92 %
28.01.2026 21:02 1,1 °C 0,6 °C -1,7 °C 95 % 996,5 hPa 0,0 l/m² 0 min 0 min 0 W/m² 12,9 km/h (3 Bft) 97,83 %
28.01.2026 21:04 1,1 °C 0,6 °C -2,2 °C 95 % 996,5 hPa 0,0 l/m² 0 min 0 min 0 W/m² 9,7 km/h (2 Bft) 97,83 %
28.01.2026 21:08 1,1 °C 0,6 °C -2,2 °C 95 % 996,6 hPa 0,0 l/m² 0 min 0 min 0 W/m² 9,7 km/h (2 Bft) 98,97 %
28.01.2026 21:09 1,1 °C 0,6 °C -2,2 °C 95 % 996,6 hPa 0,0 l/m² 0 min 0 min 0 W/m² 3,2 km/h (1 Bft) 100,00 %
28.01.2026 21:10 1,1 °C 0,6 °C -2,2 °C 95 % 996,6 hPa 0,0 l/m² 0 min 0 min 0 W/m² 9,7 km/h (2 Bft) 100,00 %
28.01.2026 21:14 1,1 °C 0,6 °C -2,2 °C 95 % 996,6 hPa 0,0 l/m² 0 min 0 min 0 W/m² 6,4 km/h (2 Bft) 100,00 %
28.01.2026 21:16 1,1 °C 0,6 °C -2,2 °C 95 % 996,6 hPa 0,0 l/m² 0 min 0 min 0 W/m² 16,1 km/h (3 Bft) 97,14 %
28.01.2026 21:18 1,1 °C 0,6 °C -2,2 °C 95 % 996,6 hPa 0,0 l/m² 0 min 0 min 0 W/m² 3,2 km/h (1 Bft) 100,00 %
28.01.2026 21:20 1,1 °C 0,6 °C -2,2 °C 95 % 996,6 hPa 0,0 l/m² 0 min 0 min 0 W/m² 0,0 km/h (0 Bft) 97,87 %
28.01.2026 21:22 1,1 °C 0,6 °C -2,2 °C 95 % 996,7 hPa 0,0 l/m² 0 min 0 min 0 W/m² 0,0 km/h (0 Bft) 93,48 %
28.01.2026 21:24 1,1 °C 0,6 °C -2,2 °C 95 % 996,6 hPa 0,0 l/m² 0 min 0 min 0 W/m² 0,0 km/h (0 Bft) 97,87 %
28.01.2026 21:26 1,1 °C 0,6 °C -2,2 °C 95 % 996,7 hPa 0,0 l/m² 0 min 0 min 0 W/m² 12,9 km/h (3 Bft) 96,36 %
28.01.2026 21:28 1,1 °C 0,6 °C -2,2 °C 95 % 996,7 hPa 0,0 l/m² 0 min 0 min 0 W/m² 16,1 km/h (3 Bft) 95,65 %
28.01.2026 21:30 1,1 °C 0,6 °C -2,2 °C 95 % 996,6 hPa 0,0 l/m² 0 min 0 min 0 W/m² 9,7 km/h (2 Bft) 91,30 %
28.01.2026 21:32 1,1 °C 0,6 °C -2,2 °C 95 % 996,6 hPa 0,0 l/m² 0 min 0 min 0 W/m² 6,4 km/h (2 Bft) 95,74 %
28.01.2026 21:34 1,1 °C 0,6 °C -2,2 °C 95 % 996,7 hPa 0,0 l/m² 0 min 0 min 0 W/m² 9,7 km/h (2 Bft) 95,92 %
28.01.2026 21:38 1,0 °C 0,6 °C -2,2 °C 95 % 996,7 hPa 0,0 l/m² 0 min 0 min 0 W/m² 9,7 km/h (2 Bft) 94,85 %
28.01.2026 21:40 1,0 °C 0,6 °C -2,2 °C 95 % 996,7 hPa 0,0 l/m² 0 min 0 min 0 W/m² 9,7 km/h (2 Bft) 95,74 %
28.01.2026 21:42 1,0 °C 0,6 °C -2,2 °C 95 % 996,7 hPa 0,0 l/m² 0 min 0 min 0 W/m² 9,7 km/h (2 Bft) 95,65 %
28.01.2026 21:44 1,0 °C 0,6 °C -2,2 °C 95 % 996,7 hPa 0,0 l/m² 0 min 0 min 0 W/m² 16,1 km/h (3 Bft) 94,44 %
28.01.2026 21:48 1,0 °C 0,6 °C -2,2 °C 95 % 996,6 hPa 0,0 l/m² 0 min 0 min 0 W/m² 9,7 km/h (2 Bft) 96,04 %
28.01.2026 21:50 1,0 °C 0,6 °C -2,2 °C 95 % 996,7 hPa 0,0 l/m² 0 min 0 min 0 W/m² 9,7 km/h (2 Bft) 96,08 %
28.01.2026 21:52 1,0 °C 0,6 °C -2,2 °C 95 % 996,6 hPa 0,0 l/m² 0 min 0 min 0 W/m² 9,7 km/h (2 Bft) 95,65 %
28.01.2026 21:54 1,0 °C 0,6 °C -2,2 °C 95 % 996,6 hPa 0,0 l/m² 0 min 0 min 0 W/m² 6,4 km/h (2 Bft) 97,67 %
28.01.2026 21:56 1,0 °C 0,6 °C -2,2 °C 95 % 996,6 hPa 0,0 l/m² 0 min 0 min 0 W/m² 9,7 km/h (2 Bft) 98,04 %
28.01.2026 21:58 1,0 °C 0,6 °C -2,2 °C 95 % 996,6 hPa 0,0 l/m² 0 min 0 min 0 W/m² 6,4 km/h (2 Bft) 97,87 %
28.01.2026 22:00 1,0 °C 0,6 °C -2,2 °C 95 % 996,7 hPa 0,0 l/m² 0 min 0 min 0 W/m² 9,7 km/h (2 Bft) 97,83 %
28.01.2026 22:02 1,0 °C 0,6 °C -2,2 °C 95 % 996,7 hPa 0,0 l/m² 0 min 0 min 0 W/m² 9,7 km/h (2 Bft) 100,00 %
28.01.2026 22:04 1,0 °C 0,6 °C -2,2 °C 95 % 996,7 hPa 0,0 l/m² 0 min 0 min 0 W/m² 12,9 km/h (3 Bft) 98,31 %
28.01.2026 22:08 1,0 °C 0,6 °C -2,2 °C 95 % 996,6 hPa 0,0 l/m² 0 min 0 min 0 W/m² 9,7 km/h (2 Bft) 98,91 %
28.01.2026 22:12 0,9 °C 0,6 °C -2,2 °C 95 % 996,7 hPa 0,0 l/m² 0 min 0 min 0 W/m² 6,4 km/h (2 Bft) 100,00 %
28.01.2026 22:14 1,0 °C 0,6 °C -2,2 °C 95 % 996,7 hPa 0,0 l/m² 0 min 0 min 0 W/m² 3,2 km/h (1 Bft) 100,00 %
28.01.2026 22:16 0,9 °C 0,6 °C -2,2 °C 95 % 996,7 hPa 0,0 l/m² 0 min 0 min 0 W/m² 6,4 km/h (2 Bft) 100,00 %
28.01.2026 22:18 0,9 °C 0,6 °C -2,2 °C 95 % 996,7 hPa 0,0 l/m² 0 min 0 min 0 W/m² 6,4 km/h (2 Bft) 98,25 %
28.01.2026 22:20 0,9 °C 0,6 °C -2,2 °C 95 % 996,8 hPa 0,0 l/m² 0 min 0 min 0 W/m² 6,4 km/h (2 Bft) 100,00 %
28.01.2026 22:22 0,9 °C 0,6 °C -2,2 °C 95 % 996,8 hPa 0,0 l/m² 0 min 0 min 0 W/m² 9,7 km/h (2 Bft) 97,78 %
28.01.2026 22:24 0,9 °C 0,6 °C -2,8 °C 95 % 996,8 hPa 0,0 l/m² 0 min 0 min 0 W/m² 6,4 km/h (2 Bft) 100,00 %
28.01.2026 22:26 0,9 °C 0,6 °C -2,8 °C 95 % 996,9 hPa 0,0 l/m² 0 min 0 min 0 W/m² 6,4 km/h (2 Bft) 100,00 %
28.01.2026 22:28 0,9 °C 0,6 °C -2,8 °C 95 % 996,9 hPa 0,0 l/m² 0 min 0 min 0 W/m² 6,4 km/h (2 Bft) 98,28 %
28.01.2026 22:30 0,9 °C 0,6 °C -2,8 °C 95 % 996,8 hPa 0,0 l/m² 0 min 0 min 0 W/m² 6,4 km/h (2 Bft) 100,00 %
28.01.2026 22:32 0,9 °C 0,6 °C -2,8 °C 95 % 996,7 hPa 0,0 l/m² 0 min 0 min 0 W/m² 3,2 km/h (1 Bft) 100,00 %
28.01.2026 22:34 0,9 °C 0,6 °C -2,8 °C 95 % 996,8 hPa 0,0 l/m² 0 min 0 min 0 W/m² 6,4 km/h (2 Bft) 100,00 %
28.01.2026 22:36 0,9 °C 0,6 °C -2,8 °C 95 % 996,9 hPa 0,0 l/m² 0 min 0 min 0 W/m² 3,2 km/h (1 Bft) 100,00 %
28.01.2026 22:38 0,9 °C 0,6 °C -2,8 °C 95 % 996,9 hPa 0,0 l/m² 0 min 0 min 0 W/m² 3,2 km/h (1 Bft) 100,00 %
28.01.2026 22:40 0,9 °C 0,6 °C -2,8 °C 95 % 996,9 hPa 0,0 l/m² 0 min 0 min 0 W/m² 3,2 km/h (1 Bft) 98,00 %
28.01.2026 22:42 0,9 °C 0,6 °C -2,8 °C 95 % 996,9 hPa 0,0 l/m² 0 min 0 min 0 W/m² 0,0 km/h (0 Bft) 97,78 %
28.01.2026 22:44 0,9 °C 0,6 °C -2,8 °C 95 % 996,9 hPa 0,0 l/m² 0 min 0 min 0 W/m² 9,7 km/h (2 Bft) 95,92 %
28.01.2026 22:46 0,9 °C 0,0 °C -2,8 °C 95 % 996,9 hPa 0,0 l/m² 0 min 0 min 0 W/m² 6,4 km/h (2 Bft) 100,00 %
28.01.2026 22:48 0,8 °C 0,0 °C -2,8 °C 95 % 996,9 hPa 0,0 l/m² 0 min 0 min 0 W/m² 6,4 km/h (2 Bft) 100,00 %
28.01.2026 22:50 0,8 °C 0,0 °C -2,8 °C 95 % 997,0 hPa 0,0 l/m² 0 min 0 min 0 W/m² 6,4 km/h (2 Bft) 96,36 %
28.01.2026 22:52 0,8 °C 0,0 °C -2,8 °C 95 % 997,0 hPa 0,0 l/m² 0 min 0 min 0 W/m² 3,2 km/h (1 Bft) 100,00 %
28.01.2026 22:54 0,8 °C 0,0 °C -2,8 °C 95 % 997,0 hPa 0,0 l/m² 0 min 0 min 0 W/m² 3,2 km/h (1 Bft) 100,00 %
28.01.2026 22:56 0,8 °C 0,0 °C -2,8 °C 95 % 997,0 hPa 0,0 l/m² 0 min 0 min 0 W/m² 3,2 km/h (1 Bft) 97,30 %
28.01.2026 22:58 0,8 °C 0,0 °C -2,8 °C 95 % 997,0 hPa 0,0 l/m² 0 min 0 min 0 W/m² 6,4 km/h (2 Bft) 100,00 %
28.01.2026 23:00 0,8 °C 0,0 °C -2,8 °C 95 % 997,0 hPa 0,0 l/m² 0 min 0 min 0 W/m² 6,4 km/h (2 Bft) 100,00 %
28.01.2026 23:02 0,8 °C 0,0 °C -2,8 °C 95 % 997,0 hPa 0,0 l/m² 0 min 0 min 0 W/m² 3,2 km/h (1 Bft) 100,00 %
28.01.2026 23:04 0,8 °C 0,0 °C -2,8 °C 95 % 997,0 hPa 0,0 l/m² 0 min 0 min 0 W/m² 3,2 km/h (1 Bft) 100,00 %
28.01.2026 23:08 0,8 °C 0,0 °C -2,8 °C 95 % 997,1 hPa 0,0 l/m² 0 min 0 min 0 W/m² 6,4 km/h (2 Bft) 96,77 %
28.01.2026 23:12 0,8 °C 0,0 °C -2,8 °C 95 % 997,1 hPa 0,0 l/m² 0 min 0 min 0 W/m² 3,2 km/h (1 Bft) 97,14 %
28.01.2026 23:14 0,8 °C 0,0 °C -2,8 °C 95 % 997,1 hPa 0,0 l/m² 0 min 0 min 0 W/m² 3,2 km/h (1 Bft) 95,74 %
28.01.2026 23:16 0,8 °C 0,0 °C -2,8 °C 95 % 997,1 hPa 0,0 l/m² 0 min 0 min 0 W/m² 3,2 km/h (1 Bft) 94,83 %
28.01.2026 23:18 0,8 °C 0,0 °C -2,8 °C 95 % 997,1 hPa 0,0 l/m² 0 min 0 min 0 W/m² 6,4 km/h (2 Bft) 97,50 %
28.01.2026 23:20 0,8 °C 0,0 °C -2,8 °C 95 % 997,1 hPa 0,0 l/m² 0 min 0 min 0 W/m² 3,2 km/h (1 Bft) 95,74 %
28.01.2026 23:22 0,8 °C 0,0 °C -2,8 °C 95 % 997,1 hPa 0,0 l/m² 0 min 0 min 0 W/m² 9,7 km/h (2 Bft) 100,00 %
28.01.2026 23:24 0,8 °C 0,0 °C -2,8 °C 95 % 997,2 hPa 0,0 l/m² 0 min 0 min 0 W/m² 3,2 km/h (1 Bft) 96,43 %
28.01.2026 23:26 0,8 °C 0,0 °C -2,8 °C 95 % 997,2 hPa 0,0 l/m² 0 min 0 min 0 W/m² 3,2 km/h (1 Bft) 97,83 %
28.01.2026 23:28 0,8 °C 0,0 °C -2,8 °C 95 % 997,2 hPa 0,0 l/m² 0 min 0 min 0 W/m² 6,4 km/h (2 Bft) 97,50 %
28.01.2026 23:30 0,8 °C 0,0 °C -2,8 °C 95 % 997,2 hPa 0,0 l/m² 0 min 0 min 0 W/m² 6,4 km/h (2 Bft) 89,36 %
28.01.2026 23:32 0,7 °C 0,0 °C -2,8 °C 95 % 997,2 hPa 0,0 l/m² 0 min 0 min 0 W/m² 6,4 km/h (2 Bft) 95,65 %
28.01.2026 23:34 0,7 °C 0,0 °C -2,8 °C 95 % 997,2 hPa 0,0 l/m² 0 min 0 min 0 W/m² 3,2 km/h (1 Bft) 95,65 %
28.01.2026 23:36 0,7 °C 0,0 °C -2,8 °C 95 % 997,3 hPa 0,0 l/m² 0 min 0 min 0 W/m² 12,9 km/h (3 Bft) 98,08 %
28.01.2026 23:38 0,7 °C 0,0 °C -2,8 °C 95 % 997,3 hPa 0,0 l/m² 0 min 0 min 0 W/m² 3,2 km/h (1 Bft) 97,83 %
28.01.2026 23:40 0,7 °C 0,0 °C -2,8 °C 95 % 997,3 hPa 0,0 l/m² 0 min 0 min 0 W/m² 6,4 km/h (2 Bft) 95,45 %
28.01.2026 23:42 0,7 °C 0,0 °C -2,8 °C 95 % 997,3 hPa 0,0 l/m² 0 min 0 min 0 W/m² 9,7 km/h (2 Bft) 96,00 %
28.01.2026 23:44 0,7 °C 0,0 °C -2,8 °C 95 % 997,3 hPa 0,0 l/m² 0 min 0 min 0 W/m² 0,0 km/h (0 Bft) 93,33 %
28.01.2026 23:46 0,7 °C 0,0 °C -2,8 °C 95 % 997,3 hPa 0,0 l/m² 0 min 0 min 0 W/m² 6,4 km/h (2 Bft) 94,59 %
28.01.2026 23:48 0,7 °C 0,0 °C -2,8 °C 95 % 997,4 hPa 0,0 l/m² 0 min 0 min 0 W/m² 3,2 km/h (1 Bft) 94,92 %
28.01.2026 23:50 0,7 °C 0,0 °C -2,8 °C 95 % 997,3 hPa 0,0 l/m² 0 min 0 min 0 W/m² 6,4 km/h (2 Bft) 93,18 %
28.01.2026 23:52 0,7 °C 0,0 °C -2,8 °C 95 % 997,4 hPa 0,0 l/m² 0 min 0 min 0 W/m² 3,2 km/h (1 Bft) 97,73 %
28.01.2026 23:54 0,7 °C 0,0 °C -2,8 °C 95 % 997,4 hPa 0,0 l/m² 0 min 0 min 0 W/m² 3,2 km/h (1 Bft) 94,23 %
28.01.2026 23:56 0,7 °C 0,0 °C -2,8 °C 95 % 997,4 hPa 0,0 l/m² 0 min 0 min 0 W/m² 3,2 km/h (1 Bft) 95,74 %
28.01.2026 23:58 0,7 °C 0,0 °C -2,8 °C 95 % 997,4 hPa 0,0 l/m² 0 min 0 min 0 W/m² 6,4 km/h (2 Bft) 95,65 %
_ Min-Zeit 23:32 22:46 22:24 20:50 01:25 - - - - 04:55 00:02
Minimum _ 0,7 °C 0,0 °C -2,8 °C 95 % 993,9 hPa - - - - 0,0 km/h (0 Bft) 10,53 %
_ Max-Zeit 11:26 12:18 12:44 10:32 23:48 00:00 00:00 00:00 13:08 15:36 00:10
Maximum _ 4,8 °C 5,0 °C 1,7 °C 99 % 997,4 hPa 0,0 l/m² 0 min 0 min 64 W/m² 19,3 km/h
NO (3 Bft)
100,00 %
Durchschnitt _ 3,3 °C 2,8 °C -0,3 °C 98 % 995,3 hPa #0,0 l/m² #0 min. #0 min. 27 W/m² 6,5 km/h (2 Bft) 97,23 %
© 2026 W. Hausmann